GEFSMW_con_probscp_078.txt.gz
Probability
5 5 8 10 9 6 6 8 9 10 9 7 5 3 1 0 0 0 0 0 0 0 0 0 0 0 0 0 0 0 0 0 0 0 0 0 0 0 0 0 0 0 0
5 6 8 11 10 6 4 5 7 9 7 5 4 3 1 0 0 0 0 0 0 0 0 0 0 0 0 0 0 0 0 0 0 0 0 0 0 0 0 0 0 0 0
5 6 7 9 9 6 2 2 4 5 4 3 3 2 1 0 0 0 0 0 0 0 0 0 0 0 0 0 0 0 0 0 0 0 0 0 0 0 0 0 0 0 0
3 3 4 6 6 4 2 1 2 2 2 2 2 1 0 0 0 0 0 0 0 0 0 0 0 0 0 0 0 0 0 0 0 0 0 0 0 0 0 0 0 0 0
1 1 1 2 3 3 3 2 2 1 0 1 1 0 0 0 0 0 0 0 0 0 0 0 0 0 0 0 0 0 0 0 0 0 0 0 0 0 0 0 0 0 0
0 0 0 1 2 3 3 2 1 0 0 0 0 0 0 0 0 0 0 0 0 0 0 0 0 0 0 0 0 0 0 0 0 0 0 0 0 0 0 0 0 0 0
0 0 0 0 1 2 2 1 0 0 0 0 0 0 0 0 0 0 0 0 0 0 0 0 0 0 0 0 0 0 0 0 0 0 0 0 0 0 0 0 0 0 0
0 0 0 0 1 1 1 0 0 0 0 0 1 0 0 0 0 0 0 0 0 0 0 0 0 0 0 0 0 0 0 0 0 0 0 0 0 0 0 0 0 0 0
0 0 0 0 0 0 0 0 0 0 0 0 0 0 0 0 0 0 0 0 0 0 0 0 0 0 0 0 0 0 0 0 0 0 0 0 0 0 0 0 0 0 0
0 0 0 0 0 0 0 0 0 0 0 0 0 0 0 1 1 1 1 1 1 1 0 0 0 0 0 0 0 0 0 0 0 0 0 0 0 0 0 0 0 0 0
0 0 0 0 0 0 0 0 0 0 1 2 3 3 3 4 5 3 3 4 4 2 1 0 0 0 0 0 0 0 0 0 0 0 0 0 0 0 0 0 0 0 0
0 0 0 0 0 0 0 1 1 1 3 7 10 11 12 13 13 9 8 9 7 4 2 1 0 0 0 0 0 0 0 0 0 0 0 0 0 0 0 0 0 0 0
2 2 3 2 2 2 2 2 3 3 5 12 19 23 25 25 23 19 16 14 11 7 4 2 0 0 0 0 0 0 0 0 0 0 0 0 0 1 1 1 1 0 0
7 9 9 8 7 6 6 6 6 7 11 18 27 33 34 34 33 29 23 19 14 9 6 4 1 0 0 0 1 1 0 0 0 1 1 1 1 1 2 2 2 1 1
10 13 15 13 11 11 11 11 11 15 21 28 34 37 38 39 39 35 28 21 15 9 6 6 4 1 0 0 1 2 1 0 1 2 2 2 1 1 2 2 2 2 2
8 10 13 13 12 11 11 14 16 22 31 37 37 37 40 42 41 36 28 20 14 9 7 7 7 4 1 0 1 2 1 1 3 6 6 4 2 1 1 1 1 1 2
6 7 9 11 11 9 10 14 18 25 34 39 37 36 39 41 39 33 24 17 14 11 9 10 10 8 4 1 0 1 1 2 7 12 14 12 6 4 4 4 3 3 2
7 8 9 11 11 10 10 15 20 25 32 35 34 33 32 33 32 28 22 18 16 15 13 13 14 15 11 3 0 0 1 3 7 14 20 21 16 10 7 8 8 8 7
9 10 11 12 13 11 10 14 20 23 25 25 24 22 21 21 23 22 21 21 20 18 15 15 18 23 19 8 1 0 1 3 8 14 19 20 16 10 6 8 13 15 15
8 9 9 10 11 11 10 11 14 16 14 11 10 9 10 13 15 16 18 20 20 19 15 15 18 23 21 10 2 0 1 3 9 16 16 11 8 4 2 5 11 15 14
5 7 7 7 8 9 8 8 9 8 5 3 3 3 5 7 9 11 13 14 15 14 13 13 16 18 16 9 2 0 0 2 6 11 12 8 3 0 0 2 6 8 7
2 4 5 5 6 7 6 6 6 4 2 2 2 2 2 3 4 6 8 9 9 9 8 9 11 12 11 7 2 0 0 0 1 4 6 6 2 0 0 0 1 1 1
1 1 2 2 4 4 3 3 3 3 2 2 2 1 1 1 2 3 4 5 5 4 5 6 6 7 8 7 3 2 2 1 0 1 2 2 1 0 0 0 0 0 1
0 0 0 0 1 1 1 1 1 1 1 2 2 2 2 2 2 2 2 2 2 3 4 5 5 5 6 5 4 3 3 1 0 0 0 0 0 0 1 1 2 2 3
0 0 0 0 0 0 0 0 0 0 1 1 1 1 1 1 2 1 1 2 2 2 3 3 3 3 2 2 2 2 2 1 0 0 0 0 0 1 2 4 4 5 6
0 0 0 0 0 0 0 0 0 0 0 0 0 0 0 0 1 1 1 1 1 1 1 1 1 1 0 0 0 0 0 0 0 0 0 0 0 1 3 4 5 6 8

GEFSMW_con_probscp_084.txt.gz
Probability
20 24 27 30 31 36 43 44 38 32 27 21 16 12 7 2 0 0 0 0 0 0 0 0 0 0 0 0 0 0 0 0 0 0 0 0 0 0 0 0 0 0 0
20 23 26 28 29 32 35 35 32 27 22 18 15 11 6 2 0 0 0 0 0 0 0 0 0 0 0 0 0 0 0 0 0 0 0 0 0 0 0 0 0 0 0
17 19 23 24 24 24 25 25 25 23 19 14 11 8 4 2 0 0 0 0 0 0 0 0 0 0 0 0 0 0 0 0 0 0 0 0 0 0 0 0 0 0 0
14 14 16 18 17 17 17 18 20 22 18 12 8 5 2 1 1 0 0 0 0 0 0 0 0 0 0 0 0 0 0 0 0 0 0 0 0 0 0 0 0 0 0
11 10 11 12 13 11 11 12 15 17 15 10 6 3 1 1 1 0 0 0 0 0 0 0 0 0 0 0 0 0 0 0 0 0 0 0 0 0 0 0 0 0 0
8 8 8 8 9 8 6 8 12 14 11 8 5 3 2 2 1 0 0 0 0 0 0 0 0 0 0 0 0 0 0 0 0 0 0 0 0 0 0 0 0 0 0
7 7 6 5 5 5 6 8 11 11 8 4 3 3 3 3 2 0 0 0 0 0 1 2 2 1 0 0 0 0 0 0 0 0 0 0 0 0 0 0 0 0 0
7 8 6 4 4 5 7 12 13 10 5 2 2 4 4 2 1 0 0 0 0 1 3 4 4 3 1 1 1 0 0 0 0 0 0 0 0 0 0 0 0 0 0
7 8 7 6 7 8 10 15 17 13 6 3 3 3 2 1 0 0 0 1 1 4 6 7 5 5 3 2 1 0 0 0 0 0 0 0 0 0 0 0 0 0 0
4 5 6 7 10 11 12 17 22 20 12 7 4 3 3 2 1 1 3 5 7 9 12 9 7 6 5 4 3 1 0 0 0 0 0 0 0 0 0 0 0 0 0
1 2 3 6 9 11 14 20 24 24 18 11 7 7 9 9 8 8 11 16 19 20 20 16 11 8 6 6 5 2 1 1 1 1 1 0 0 1 0 0 0 0 1
2 2 3 5 7 9 13 20 24 23 19 15 16 18 18 18 19 21 27 34 38 36 32 26 19 12 9 9 8 6 3 2 3 3 2 2 3 3 3 3 2 2 2
10 9 10 13 13 12 15 20 22 20 20 23 27 30 29 30 33 36 41 49 54 51 44 37 28 20 14 12 12 10 8 7 6 5 6 7 7 7 8 9 8 6 4
20 22 26 29 28 25 24 25 24 23 27 33 37 40 41 43 45 47 52 58 61 61 56 50 42 33 24 18 17 16 15 13 12 11 13 13 12 11 12 12 12 11 9
24 29 36 41 40 36 32 30 29 31 36 42 46 48 51 54 56 57 60 65 66 67 68 64 57 46 31 20 19 21 22 25 26 26 25 21 15 11 10 9 9 11 11
27 31 39 45 47 44 38 35 35 38 43 48 51 52 55 61 63 63 66 69 71 74 75 72 65 52 33 17 12 16 25 34 40 43 41 29 15 9 7 5 4 5 6
35 39 44 48 50 49 45 42 43 46 49 51 52 52 56 61 62 62 64 67 70 73 75 73 68 57 37 16 5 7 18 30 39 47 47 34 19 12 13 13 8 4 4
37 40 42 44 45 46 46 45 45 47 48 50 50 50 53 55 55 54 56 60 62 64 67 67 65 60 43 18 3 1 7 17 27 34 36 34 26 18 17 19 16 12 11
30 31 31 33 36 38 39 39 39 39 41 43 43 44 45 46 45 45 47 50 51 52 53 54 54 53 41 20 4 0 3 10 18 22 23 23 21 14 10 11 14 16 19
25 25 25 27 28 29 29 28 27 28 30 31 31 32 32 33 33 35 37 39 40 39 39 39 40 39 33 19 5 0 3 10 14 16 14 9 7 5 2 2 6 10 13
19 20 20 21 21 21 20 20 19 18 19 19 20 19 19 19 20 22 24 25 26 26 26 28 29 28 24 15 5 0 3 7 8 7 6 4 1 0 0 0 1 3 4
12 12 13 13 12 12 12 12 12 11 11 11 11 10 9 8 9 10 10 11 13 14 16 19 21 19 16 9 3 0 1 2 2 1 1 1 0 0 0 0 0 0 0
7 7 7 7 5 4 4 5 5 5 5 5 4 3 2 2 3 3 3 4 6 7 8 11 12 11 9 6 2 1 0 0 0 0 0 0 0 0 0 0 0 0 0
3 3 3 3 2 2 2 3 3 2 1 1 0 0 0 1 1 2 2 3 3 3 3 4 5 5 5 3 2 1 0 0 0 0 0 0 0 0 0 0 0 0 0
2 2 2 2 2 2 3 3 2 1 0 0 0 0 0 0 0 1 2 2 1 1 1 1 1 2 1 1 1 1 0 0 0 0 0 0 0 0 0 0 0 1 1
3 3 3 2 1 2 2 2 1 1 0 0 0 0 0 0 0 0 1 1 0 0 0 0 0 0 0 0 0 0 0 0 0 0 0 0 0 0 0 0 1 2 4

GEFSMW_con_probscp_090.txt.gz
Probability
17 18 17 17 19 21 21 17 14 12 11 11 10 6 2 0 0 0 0 0 0 0 0 0 0 0 0 0 0 0 0 0 0 0 0 0 0 0 0 0 0 0 0
17 15 12 11 15 18 19 16 13 10 9 8 7 3 1 0 0 0 0 0 0 0 0 0 0 0 0 0 0 0 0 0 0 0 0 0 0 0 0 0 0 0 0
14 11 7 6 10 14 15 15 12 8 6 5 4 1 0 0 0 0 0 0 0 0 0 0 0 0 0 0 0 0 0 0 0 0 0 0 0 0 0 0 0 0 0
9 7 5 4 6 9 11 12 11 7 5 3 2 1 0 0 0 0 0 0 0 0 0 0 0 0 0 0 0 0 0 0 0 0 0 0 0 0 0 0 0 0 0
6 4 3 3 4 5 7 8 8 6 4 2 1 0 0 0 0 0 0 0 0 0 0 0 0 0 0 0 0 0 0 0 0 0 0 0 0 0 0 0 0 0 0
5 3 2 2 2 2 3 5 5 4 2 1 0 0 0 0 0 0 0 0 0 0 0 0 0 0 0 0 0 0 0 0 0 0 0 0 0 0 0 0 0 0 0
3 3 2 2 1 1 1 2 2 1 1 0 0 0 0 0 0 0 0 0 0 0 0 0 0 0 0 0 0 0 0 0 0 0 0 0 0 0 0 0 0 0 0
2 1 1 1 0 0 0 1 1 0 0 0 0 0 0 0 0 0 0 0 0 0 0 0 0 0 0 0 0 0 0 0 0 0 0 0 0 0 0 0 0 0 0
1 0 0 0 1 1 1 2 2 1 1 0 0 0 0 0 0 0 0 0 0 0 0 0 0 0 0 0 0 0 0 0 0 0 0 0 0 0 0 0 0 0 0
0 0 0 1 3 3 3 4 4 3 2 1 0 0 1 1 1 0 0 0 0 0 0 0 0 0 0 0 0 0 0 0 0 0 0 0 0 0 0 0 0 0 0
0 0 0 1 3 5 7 8 7 5 3 2 2 2 1 1 1 0 0 0 0 0 0 0 0 0 0 0 0 0 0 0 0 0 0 0 0 0 0 0 0 0 0
1 0 0 1 3 5 8 12 11 7 5 4 4 3 1 0 0 0 0 0 0 0 0 0 0 0 0 0 0 0 0 0 0 0 0 0 0 0 0 0 0 0 0
2 2 2 3 4 5 8 12 13 9 6 6 6 3 1 0 0 1 1 1 0 0 0 0 0 0 0 0 0 0 0 0 0 0 0 0 0 0 0 0 0 0 0
4 4 4 5 4 4 6 10 11 9 7 8 7 4 1 0 0 2 3 3 3 3 3 1 0 0 0 0 0 0 0 0 0 0 0 0 0 0 0 0 0 0 0
5 5 5 5 3 3 5 6 7 7 7 8 7 4 2 1 2 4 5 6 7 6 5 3 1 0 0 0 0 0 0 0 0 1 1 0 0 0 0 0 0 0 0
6 6 5 4 2 3 4 4 4 5 7 7 5 4 3 2 4 6 7 7 7 7 5 4 3 2 1 0 0 0 0 0 0 1 1 0 0 0 0 0 0 0 0
5 5 5 3 2 2 3 4 4 4 5 5 4 4 4 5 7 8 7 6 7 6 6 6 7 5 3 1 0 0 0 0 0 1 1 0 0 0 0 0 0 0 0
2 2 2 1 2 2 3 4 4 3 3 4 4 4 5 6 7 7 6 6 8 8 8 8 8 7 4 1 0 0 0 0 0 0 0 0 0 0 0 0 0 0 0
0 0 0 0 1 2 2 3 3 1 1 2 2 3 4 5 5 5 4 5 6 7 6 6 5 5 4 1 0 0 0 0 0 0 0 0 0 0 0 0 0 0 0
0 0 0 0 0 1 1 1 1 1 0 0 0 1 2 3 3 2 2 2 2 3 2 2 2 2 2 1 0 0 0 0 0 0 0 0 0 0 0 0 0 0 0
0 0 0 0 0 0 0 0 0 0 0 0 0 0 0 1 1 1 1 1 0 0 0 0 0 0 0 0 0 0 0 0 0 0 0 0 0 0 0 0 0 0 0
0 0 0 0 0 0 0 0 0 0 0 0 0 0 0 0 0 0 0 0 0 0 0 0 0 0 0 0 0 0 0 0 0 0 0 0 0 0 0 0 0 0 0
0 0 0 0 0 0 0 0 0 0 0 0 0 0 0 0 0 0 0 0 0 0 0 0 0 0 0 0 0 0 0 0 0 0 0 0 0 0 0 0 0 0 0
0 0 0 0 0 0 0 0 0 0 0 0 0 0 0 0 0 0 0 0 0 0 0 0 0 0 0 0 0 0 0 0 0 0 0 0 0 0 0 0 0 0 0
0 0 0 0 0 0 0 0 0 0 0 0 0 0 0 0 0 0 0 0 0 0 0 0 0 0 0 0 0 0 0 0 0 0 0 0 0 0 0 0 0 0 0
0 0 0 0 0 0 0 0 0 0 0 0 0 0 0 0 0 0 0 0 0 0 0 0 0 0 0 0 0 0 0 0 0 0 0 0 0 0 0 0 0 0 0

GEFSMW_con_probscp_096.txt.gz
Probability
3 4 6 9 9 6 3 3 4 6 6 6 6 5 4 3 3 3 2 1 0 0 0 0 0 0 0 0 0 0 0 0 0 0 0 0 0 0 0 0 0 0 0
1 2 4 7 7 5 3 3 4 5 5 6 6 5 3 3 2 2 1 0 0 0 0 0 0 0 0 0 0 0 0 0 0 0 0 0 0 0 0 0 0 0 0
0 1 2 5 5 4 3 4 5 6 5 4 5 4 3 2 1 1 0 0 0 0 0 0 0 0 0 0 0 0 0 0 0 0 0 0 0 0 0 0 0 0 0
0 1 2 3 4 4 3 4 5 5 4 3 3 2 2 1 0 0 0 0 0 0 0 0 0 0 0 0 0 0 0 0 0 0 0 0 0 0 0 0 0 0 0
1 1 2 2 3 3 2 3 3 2 2 2 1 0 1 1 0 0 0 0 0 0 0 0 0 0 0 0 0 0 0 0 0 0 0 0 0 0 0 0 0 0 0
0 1 1 1 1 1 1 1 1 1 0 0 0 0 0 0 0 0 0 0 0 0 0 0 0 0 0 0 0 0 0 0 0 0 0 0 0 0 0 0 0 0 0
0 0 0 0 0 0 0 0 0 1 0 0 0 0 0 0 0 0 0 0 0 0 0 0 0 0 0 0 0 0 0 0 0 0 0 0 0 0 0 0 0 0 0
0 0 0 0 0 0 0 0 0 0 0 0 0 0 0 0 0 0 0 0 0 0 0 0 0 0 0 0 0 0 0 0 0 0 0 0 0 0 0 0 0 0 0
0 0 0 0 0 0 0 0 0 0 0 0 0 0 0 0 0 0 0 0 0 0 0 0 0 0 0 0 0 0 0 0 0 0 0 0 0 0 0 0 0 0 0
0 0 0 0 0 0 0 0 0 0 0 0 0 0 0 0 0 0 0 0 0 0 0 0 0 0 0 0 0 0 0 0 0 0 0 0 0 0 0 0 0 0 0
0 0 0 0 0 0 0 0 0 0 0 0 0 0 0 0 0 0 0 0 0 0 0 0 0 0 0 0 0 0 0 0 0 0 0 0 0 0 0 0 0 0 0
0 0 0 0 0 0 0 0 0 0 0 0 0 0 0 0 0 0 0 0 0 0 0 0 0 0 0 0 0 0 0 0 0 0 0 0 0 0 0 0 0 0 0
0 0 0 0 0 0 0 0 0 0 0 0 1 1 1 1 1 0 0 0 0 0 0 0 0 0 0 0 0 0 0 0 0 0 0 0 0 0 0 0 0 0 0
0 0 0 0 0 0 0 0 0 0 1 1 1 2 2 2 2 1 0 0 0 0 0 0 0 0 0 0 0 0 0 0 0 0 0 0 0 0 0 0 0 0 0
0 0 0 0 0 0 0 0 0 0 1 1 2 3 3 3 2 1 0 0 0 0 0 0 0 0 0 0 0 0 0 0 0 0 0 0 0 0 0 0 0 0 0
1 0 0 0 0 0 0 0 0 0 1 1 1 2 2 2 1 1 0 0 0 0 0 0 0 0 0 0 0 0 0 0 0 0 0 0 0 0 0 0 0 0 0
1 0 0 0 0 0 0 0 0 0 0 0 1 1 1 1 0 0 0 0 0 1 1 1 0 0 0 0 0 0 0 0 0 0 0 0 0 0 0 0 0 0 0
1 0 0 0 0 0 0 0 0 0 0 0 0 0 0 0 0 0 0 0 1 2 2 1 0 0 0 0 0 0 0 0 0 0 0 0 0 0 0 0 0 0 0
0 0 0 0 0 0 0 0 0 0 0 0 0 0 0 0 0 0 0 0 1 2 2 1 0 0 0 0 0 0 0 0 0 0 0 0 0 0 0 0 0 0 0
0 0 0 0 0 0 0 0 0 0 0 0 0 0 0 0 0 0 0 0 1 1 1 0 0 0 0 0 0 0 0 0 0 0 0 0 0 0 0 0 0 0 0
0 0 0 0 0 0 0 0 0 0 0 0 0 0 0 0 0 0 0 0 0 0 0 0 0 0 0 0 0 0 0 0 0 0 0 0 0 0 0 0 0 0 0
0 0 0 0 0 0 0 0 0 0 0 0 0 0 0 0 0 0 0 0 0 0 0 0 0 0 0 0 0 0 0 0 0 0 0 0 0 0 0 0 0 0 0
0 0 0 0 0 0 0 0 0 0 0 0 0 0 0 0 0 0 0 0 0 0 0 0 0 0 0 0 0 0 0 0 0 0 0 0 0 0 0 0 0 0 0
0 0 0 0 0 0 0 0 0 0 0 0 0 0 0 0 0 0 0 0 0 0 0 0 0 0 0 0 0 0 0 0 0 0 0 0 0 0 0 0 0 0 0
0 0 0 0 0 0 0 0 0 0 0 0 0 0 0 0 0 0 0 0 0 0 0 0 0 0 0 0 0 0 0 0 0 0 0 0 0 0 0 0 0 0 0
0 0 0 0 0 0 0 0 0 0 0 0 0 0 0 0 0 0 0 0 0 0 0 0 0 0 0 0 0 0 0 0 0 0 0 0 0 0 0 0 0 0 0

GEFSMW_con_probscp_102.txt.gz
Probability
26 25 19 12 10 12 15 14 16 20 24 27 25 22 19 17 14 9 4 3 3 3 2 1 0 0 0 0 0 0 0 0 0 0 0 0 0 0 0 0 0 0 0
23 20 16 13 12 13 13 13 15 18 21 24 24 22 18 16 13 8 4 3 3 3 3 1 0 0 0 0 0 0 0 0 0 0 0 0 0 0 0 0 0 0 0
14 13 11 11 11 11 10 12 15 18 18 18 18 17 15 13 10 7 4 3 3 3 3 2 1 0 0 0 0 0 0 0 0 0 0 0 0 0 0 0 0 0 0
7 8 7 7 7 7 7 10 16 19 17 14 12 11 10 10 10 8 5 3 3 3 3 3 2 1 0 0 0 0 0 0 0 0 0 0 0 0 0 0 0 0 0
6 6 5 5 6 5 5 9 14 17 15 11 8 6 7 9 10 9 6 4 3 3 3 3 2 1 0 0 0 0 0 0 0 0 0 0 0 0 0 0 0 0 0
6 5 4 5 6 5 5 7 11 12 11 8 5 4 5 8 8 7 5 3 3 3 2 3 2 1 0 0 0 0 0 0 0 0 0 0 0 0 0 0 0 0 0
6 5 4 4 4 4 5 6 9 9 7 6 4 3 4 6 6 5 3 3 3 2 2 2 2 1 0 0 0 0 0 0 0 0 0 0 0 0 0 0 0 0 0
6 5 3 2 2 2 3 4 6 6 5 4 5 4 4 5 5 4 2 2 1 1 1 1 1 0 0 0 0 0 0 0 0 0 0 0 0 0 0 0 0 0 0
6 5 3 2 2 1 1 2 3 4 3 4 5 5 4 4 5 4 2 1 0 0 0 0 0 0 0 0 0 0 0 0 0 0 0 0 1 1 1 1 1 0 0
4 4 3 2 1 1 0 0 1 2 3 4 4 3 3 3 3 3 2 1 0 0 0 0 0 0 0 0 0 0 1 1 1 1 1 1 2 2 2 2 2 1 1
3 3 3 2 1 0 0 0 0 1 4 6 4 2 2 1 1 1 1 1 0 0 0 0 1 1 0 0 1 1 1 2 2 2 2 2 3 4 3 3 2 2 2
3 3 3 2 1 0 0 0 0 2 6 7 5 3 3 2 2 2 2 1 0 0 0 1 2 1 0 0 0 0 1 1 2 3 4 3 4 5 4 3 2 2 3
6 5 4 3 1 0 0 0 0 2 5 6 5 5 5 4 4 4 3 2 1 1 1 2 3 2 1 1 1 2 3 4 5 8 8 7 8 9 8 6 4 4 4
10 8 7 5 3 2 2 2 2 4 5 5 6 7 7 6 6 7 7 5 4 3 3 3 3 2 2 3 5 6 8 10 11 13 13 12 11 11 10 10 11 12 12
11 10 10 9 7 8 9 10 10 12 11 9 8 9 8 7 8 12 13 11 8 6 6 6 5 3 3 5 6 8 10 12 14 16 17 15 11 8 7 8 13 16 17
13 13 13 14 14 16 17 17 17 19 18 15 13 12 10 8 9 12 13 13 12 11 10 10 8 6 4 3 3 5 7 10 14 17 18 14 7 3 2 3 5 8 10
19 20 22 22 21 22 21 19 17 19 20 18 16 15 13 11 11 12 13 15 16 15 13 11 9 8 4 1 0 1 3 6 11 14 14 10 5 1 1 2 4 5 5
29 29 29 26 24 23 23 20 18 19 19 18 17 17 15 13 13 15 16 17 17 14 11 8 7 7 4 1 0 0 2 5 7 8 8 6 4 2 2 5 8 10 9
35 33 29 25 23 23 23 22 21 21 19 17 17 17 15 14 14 15 14 14 12 9 6 5 4 4 3 1 0 0 2 4 4 4 3 2 2 1 1 3 8 10 9
35 31 26 23 21 21 22 23 22 21 18 16 15 14 12 11 10 10 9 8 6 4 3 2 2 1 1 0 0 0 1 2 2 2 1 0 0 0 0 1 3 5 5
29 26 23 21 19 18 19 20 19 17 14 12 11 8 6 5 5 5 4 3 3 2 1 1 0 0 0 0 0 0 0 0 0 1 1 0 0 0 0 0 2 2 2
19 18 17 16 16 16 15 14 12 10 7 7 6 3 1 1 2 3 3 2 1 1 0 0 0 0 0 0 0 0 0 0 0 0 0 0 0 0 0 0 1 1 0
12 11 11 11 11 11 9 7 5 3 3 3 2 1 0 1 1 1 1 0 0 0 0 0 0 0 0 0 0 0 0 0 0 0 0 0 0 0 0 0 0 0 0
9 7 7 6 4 4 4 3 1 1 1 1 1 0 0 0 0 0 0 0 0 0 0 0 0 0 0 0 0 0 0 0 0 0 0 0 0 0 0 0 0 0 0
5 4 3 2 1 0 1 1 0 0 0 0 0 0 0 0 0 0 0 0 0 0 0 0 0 0 0 0 0 0 0 0 0 0 0 0 0 0 0 0 0 0 0
2 1 0 0 0 0 0 0 0 0 0 0 0 0 0 0 0 0 0 0 0 0 0 0 0 0 0 0 0 0 0 0 0 0 0 0 0 0 0 0 0 0 0

GEFSMW_con_probscp_108.txt.gz
Probability
62 62 60 55 50 48 45 42 37 29 24 24 27 30 33 32 27 24 20 15 12 9 7 5 4 3 3 2 1 0 0 0 0 0 0 0 0 0 0 0 0 0 0
61 62 60 54 47 45 43 40 35 29 24 24 26 27 29 28 25 23 21 17 12 9 6 5 4 3 3 3 1 0 0 0 0 0 0 0 0 0 0 0 0 0 0
59 62 59 50 43 40 39 37 33 28 25 25 26 25 24 23 22 21 20 16 12 8 6 4 3 3 3 3 2 1 0 0 0 0 0 0 0 0 0 0 0 0 0
56 59 55 45 38 35 33 31 28 25 24 25 26 25 23 20 20 19 17 15 12 9 6 4 3 3 3 3 3 1 0 0 0 0 0 0 0 0 0 0 0 0 0
50 52 49 41 34 31 29 26 24 22 22 24 26 26 23 21 20 18 16 14 12 10 7 5 4 3 3 3 3 2 1 0 0 0 0 0 0 0 0 0 0 0 0
43 43 41 38 32 27 26 24 20 18 19 20 23 24 24 23 20 16 14 13 12 10 7 5 4 4 3 3 3 2 1 0 0 0 0 0 0 0 0 0 0 0 0
35 35 36 36 31 25 23 22 18 14 14 16 19 21 22 21 18 14 12 12 10 9 8 6 4 4 4 3 3 2 1 0 0 0 0 0 0 0 0 0 0 0 0
31 30 31 32 30 25 22 20 16 14 14 15 17 19 18 16 15 13 10 8 7 8 9 8 5 4 4 3 3 2 1 0 0 0 0 0 0 0 0 0 0 0 0
29 27 26 28 28 25 20 17 16 16 17 17 17 17 16 14 15 13 8 5 5 7 9 8 6 4 4 3 3 2 1 1 0 0 0 0 0 0 0 0 0 0 0
25 24 22 24 24 22 19 17 17 17 18 17 16 15 15 15 15 13 8 5 6 7 8 7 5 4 3 3 3 2 3 3 1 0 0 0 0 0 0 0 0 0 0
22 22 21 20 19 17 15 15 16 17 16 15 14 13 13 14 15 12 8 8 8 8 7 6 4 2 2 3 2 2 2 3 2 1 1 2 2 2 1 0 0 1 1
21 23 21 18 16 14 13 14 14 15 14 14 14 14 13 13 14 12 10 11 11 9 6 4 2 1 1 1 1 1 0 1 2 2 3 4 5 4 3 1 1 1 1
24 25 25 22 18 15 14 13 13 13 14 15 16 16 15 14 14 14 13 12 11 7 4 3 2 1 0 0 1 1 1 1 2 3 5 6 7 8 7 5 4 3 2
28 31 34 31 24 19 17 15 14 14 15 15 17 18 17 15 15 14 14 12 9 7 6 6 4 2 0 0 1 3 3 3 3 5 6 7 8 9 8 7 7 6 5
34 37 42 41 35 29 24 20 18 19 18 18 18 19 18 16 15 15 13 12 11 9 10 11 7 3 1 1 2 4 6 7 7 6 6 7 6 5 4 4 4 4 4
44 46 48 49 47 42 36 30 26 27 26 24 20 19 19 18 17 16 14 14 15 14 14 14 9 3 1 1 1 3 8 11 11 9 7 5 3 1 0 0 1 1 1
53 53 53 54 54 51 46 40 35 35 34 29 24 22 23 23 21 17 16 17 18 18 17 15 9 3 1 0 0 2 7 11 11 8 7 4 1 0 0 0 1 1 1
61 59 57 57 56 53 49 43 39 39 37 33 30 30 28 25 22 19 19 22 23 23 21 15 8 3 1 0 0 2 5 6 5 4 3 2 0 0 0 0 2 2 2
65 64 59 57 57 54 50 43 39 39 38 36 35 34 31 27 24 24 25 25 25 22 19 12 5 2 0 0 0 1 2 1 0 0 0 0 0 0 0 0 1 1 1
65 64 60 58 57 55 51 45 41 38 38 37 35 33 31 29 28 28 26 23 19 13 8 5 2 0 0 0 0 0 0 0 0 0 0 0 0 0 0 0 0 0 0
60 58 56 55 54 52 49 44 40 37 35 34 32 29 26 25 24 24 20 15 9 4 1 0 0 0 0 0 0 0 0 0 0 0 0 0 0 0 0 0 0 0 0
50 49 47 47 47 46 43 39 36 33 31 28 25 22 18 15 14 14 11 6 3 1 0 0 0 0 0 0 0 0 0 0 0 0 0 0 0 0 0 0 0 0 0
37 37 37 37 37 37 35 32 30 27 23 20 16 12 9 8 6 5 4 2 1 0 0 0 0 0 0 0 0 0 0 0 0 0 0 0 0 0 0 0 0 0 0
25 26 26 27 27 26 25 23 22 18 14 10 6 3 3 3 2 1 1 1 0 0 0 0 0 0 0 0 0 0 0 0 0 0 0 0 0 0 0 0 0 0 0
16 16 16 16 15 13 13 12 11 9 5 3 1 0 0 0 0 0 0 0 0 0 0 0 0 0 0 0 0 0 0 0 0 0 0 0 0 0 0 0 0 0 0
11 10 10 9 6 4 4 4 4 4 2 1 0 0 0 0 0 0 0 0 0 0 0 0 0 0 0 0 0 0 0 0 0 0 0 0 0 0 0 0 0 0 0

GEFSMW_con_probscp_114.txt.gz
Probability
49 48 46 44 41 37 36 35 30 22 14 8 6 8 12 13 11 6 2 1 2 3 3 3 2 1 0 0 0 0 0 0 0 0 0 0 0 0 0 0 0 0 0
48 47 44 42 40 36 33 30 26 20 14 9 8 9 12 13 10 6 3 3 3 4 3 3 3 2 1 0 0 0 0 0 0 0 0 0 0 0 0 0 0 0 0
44 43 41 39 37 34 29 24 21 19 15 11 10 11 12 11 9 8 7 6 5 5 4 3 3 3 1 0 0 0 0 0 0 0 0 0 0 0 0 0 0 0 0
36 37 36 34 32 29 24 19 17 17 15 12 11 12 12 11 9 9 9 8 7 6 4 3 3 3 2 1 1 0 0 0 0 0 0 0 0 0 0 0 0 0 0
27 28 29 28 26 24 20 16 14 13 13 11 9 9 10 9 8 8 8 8 7 6 4 3 3 3 2 2 2 1 0 0 0 0 0 0 0 0 0 0 0 0 0
18 19 21 21 21 20 17 13 10 10 11 9 6 5 5 4 3 4 6 7 7 6 4 3 3 2 1 1 1 1 0 0 0 0 0 0 0 0 0 0 0 0 0
13 13 13 14 15 15 13 10 8 8 8 7 4 2 1 0 0 1 2 5 6 5 4 3 3 2 1 1 1 0 0 0 0 0 0 0 0 0 0 0 0 0 0
14 13 10 9 9 9 9 7 6 5 5 4 3 1 0 0 0 0 0 2 4 3 3 3 3 3 2 2 1 0 0 0 0 0 0 0 0 0 0 0 0 0 0
17 13 8 5 5 5 5 5 4 3 3 3 3 1 1 0 0 0 0 1 1 1 1 1 2 3 3 3 2 1 0 0 0 0 0 0 0 0 0 0 0 0 0
14 11 6 2 2 2 2 2 3 3 3 3 3 3 2 1 0 0 0 0 0 0 0 0 1 3 3 3 2 1 0 0 0 0 0 0 0 0 0 0 0 0 0
7 6 4 1 1 1 2 2 3 3 3 3 3 3 3 1 0 0 0 0 0 0 0 0 1 2 2 2 1 0 0 0 0 0 0 0 0 0 0 0 0 0 0
3 4 4 3 3 4 3 3 3 3 3 3 3 3 3 2 1 1 0 0 0 0 0 0 0 1 1 1 0 0 0 0 0 0 0 0 0 0 0 0 0 0 0
3 5 6 5 6 6 5 4 3 3 3 3 3 3 3 3 3 2 1 0 0 0 0 0 0 0 0 0 0 0 0 0 0 0 0 0 0 0 0 0 0 0 0
5 6 7 7 7 7 7 6 4 3 3 3 3 3 3 4 4 3 1 0 0 0 0 0 0 0 0 0 0 0 0 0 0 0 0 0 0 0 0 0 0 0 0
5 6 7 8 7 8 8 7 6 5 5 5 3 3 3 3 3 2 1 0 0 0 0 0 0 0 0 0 0 0 0 0 0 0 0 0 0 0 0 0 0 0 0
9 9 10 10 8 8 9 9 9 9 9 8 5 4 4 3 1 1 1 1 0 0 0 0 0 0 0 0 0 0 0 0 0 0 0 0 0 0 0 0 0 0 0
13 15 15 13 9 8 10 12 13 13 11 9 7 6 5 3 2 1 1 1 1 0 0 0 0 0 0 0 0 0 0 0 0 0 0 0 0 0 0 0 0 0 0
16 19 20 16 10 8 11 13 15 14 11 8 7 7 6 4 3 2 2 2 2 0 0 0 0 0 0 0 0 0 0 0 0 0 0 0 0 0 0 0 0 0 0
17 20 23 20 14 10 11 14 15 13 11 9 9 8 7 5 4 3 3 2 1 0 0 0 0 0 0 0 0 0 0 0 0 0 0 0 0 0 0 0 0 0 0
18 20 22 22 17 12 12 15 14 12 10 9 9 9 7 5 4 4 3 1 0 0 0 0 0 0 0 0 0 0 0 0 0 0 0 0 0 0 0 0 0 0 0
16 17 17 18 17 14 13 13 12 10 8 6 6 6 5 4 4 3 2 1 0 0 0 0 0 0 0 0 0 0 0 0 0 0 0 0 0 0 0 0 0 0 0
11 12 12 13 13 12 12 10 8 6 5 5 4 3 2 2 2 1 1 0 0 0 0 0 0 0 0 0 0 0 0 0 0 0 0 0 0 0 0 0 0 0 0
7 7 9 10 9 8 8 7 4 3 4 4 2 1 1 1 1 0 0 0 0 0 0 0 0 0 0 0 0 0 0 0 0 0 0 0 0 0 0 0 0 0 0
4 5 7 8 6 4 3 3 2 2 2 2 1 0 0 0 0 0 0 0 0 0 0 0 0 0 0 0 0 0 0 0 0 0 0 0 0 0 0 0 0 0 0
3 4 5 5 3 1 1 0 1 1 1 0 0 0 0 0 0 0 0 0 0 0 0 0 0 0 0 0 0 0 0 0 0 0 0 0 0 0 0 0 0 0 0
3 3 2 2 1 0 0 0 0 0 0 0 0 0 0 0 0 0 0 0 0 0 0 0 0 0 0 0 0 0 0 0 0 0 0 0 0 0 0 0 0 0 0

GEFSMW_con_probscp_120.txt.gz
Probability
28 30 32 32 29 27 23 19 16 12 7 5 5 4 3 2 1 0 0 0 0 0 0 0 0 0 0 0 0 0 0 0 0 0 0 0 0 0 0 0 0 0 0
30 32 32 29 26 25 23 20 15 12 8 8 7 4 3 2 1 0 0 0 0 1 1 0 0 0 0 0 0 0 0 0 0 0 0 0 0 0 0 0 0 0 0
31 31 29 25 22 20 20 18 14 12 10 9 8 4 2 3 2 1 1 1 1 2 2 1 0 0 0 0 0 0 0 0 0 0 0 0 0 0 0 0 0 0 0
30 28 25 23 19 17 17 15 13 12 11 9 6 4 3 3 3 3 2 2 3 3 4 3 1 1 2 1 1 0 0 0 0 0 0 0 0 0 0 0 0 0 0
25 22 20 18 15 13 13 12 10 11 11 8 4 2 2 2 3 3 3 4 4 4 3 3 2 3 3 3 2 1 0 0 0 0 0 0 0 0 0 0 0 0 0
16 14 11 11 10 9 9 8 8 8 9 6 3 1 1 1 1 2 3 5 5 4 3 3 3 3 3 3 3 2 1 0 0 0 0 0 0 0 0 0 0 0 0
6 6 5 4 5 5 5 6 6 7 7 6 3 1 0 0 0 1 2 4 5 5 4 3 3 3 3 3 3 3 2 1 0 0 0 0 0 0 0 0 0 0 0
1 2 2 2 2 2 3 5 6 5 6 6 3 1 0 0 0 0 1 1 3 3 3 3 3 3 3 3 3 3 2 1 0 0 0 0 0 0 0 0 0 0 0
1 1 2 2 2 2 3 5 5 4 4 4 3 2 1 0 0 0 0 0 1 1 1 2 2 2 3 3 3 3 1 0 0 0 0 0 0 0 0 0 0 0 0
1 2 3 3 3 3 3 4 4 3 3 3 3 2 2 1 0 0 0 0 0 0 0 1 1 1 1 2 2 2 1 0 0 0 0 0 0 0 0 0 0 0 0
1 2 2 3 2 2 3 3 3 3 2 2 1 1 1 1 0 0 0 0 0 0 0 0 0 0 0 1 1 1 0 0 0 0 0 0 0 0 0 0 0 0 0
0 1 1 1 1 1 3 3 2 1 1 1 0 1 1 0 0 0 0 0 0 0 0 0 0 0 0 0 0 0 0 0 0 0 0 0 0 0 0 0 0 0 0
0 0 0 0 0 1 2 3 2 1 1 1 1 2 1 0 0 0 0 0 0 0 0 0 0 0 0 0 0 0 0 0 0 0 0 0 0 0 0 0 0 0 0
0 0 0 0 0 1 2 4 3 2 2 2 2 2 1 0 0 0 0 0 0 0 0 0 0 0 0 0 0 0 0 0 0 0 0 0 0 0 0 0 0 0 0
0 0 0 0 0 2 3 5 5 4 3 2 1 1 1 0 0 0 0 0 0 0 0 0 0 0 0 0 0 0 0 0 0 0 0 0 0 0 0 0 0 0 0
1 0 0 0 0 2 4 7 8 6 4 3 2 1 0 0 0 0 0 0 0 0 0 0 0 0 0 0 0 0 1 1 1 0 0 0 0 0 0 0 0 0 0
2 1 0 0 0 1 3 7 8 6 5 5 5 3 2 1 0 1 1 1 1 0 0 0 0 0 0 0 0 0 1 2 1 0 0 0 0 0 0 0 0 0 0
4 3 1 0 0 0 1 4 5 5 6 6 6 6 5 3 2 2 2 2 1 0 0 0 0 0 0 0 0 0 1 1 1 0 0 0 0 0 0 0 0 0 0
4 3 1 0 0 0 0 1 2 3 5 6 6 6 6 5 3 3 3 2 1 0 0 0 0 0 0 0 0 0 0 0 0 0 0 0 0 0 0 0 0 0 0
3 2 1 0 0 0 0 0 0 1 3 5 5 6 5 4 3 2 2 1 0 0 0 0 0 0 0 0 0 0 0 0 0 0 0 0 0 0 0 0 0 0 0
1 0 1 2 1 1 0 0 0 0 1 2 3 3 3 1 1 1 1 0 0 0 0 0 0 0 0 0 0 0 0 0 0 0 0 0 0 0 0 0 0 0 0
0 1 2 3 3 2 1 0 0 0 0 0 1 1 1 0 0 0 0 0 0 0 0 0 0 0 0 0 0 0 0 0 0 0 0 0 0 0 0 0 0 0 0
0 1 2 3 3 3 2 1 1 0 0 0 0 0 0 0 0 0 0 0 0 0 0 0 0 0 0 0 0 0 0 0 0 0 0 0 0 0 0 0 0 0 0
0 1 2 3 3 3 3 3 2 1 0 0 0 0 0 0 1 0 0 0 0 0 0 0 0 0 0 0 0 0 0 0 0 0 0 0 0 0 0 0 0 0 0
0 1 3 3 3 3 3 3 2 1 0 0 0 0 0 0 0 0 0 0 0 0 0 0 0 0 0 0 0 0 0 0 0 0 0 0 0 0 0 0 0 0 0
1 2 3 3 3 3 3 2 1 0 0 0 0 0 0 0 0 0 0 0 0 0 0 0 0 0 0 0 0 0 0 0 0 0 0 0 0 0 0 0 0 0 0

GEFSMW_con_probscp_126.txt.gz
Probability
40 42 41 39 39 42 45 42 33 30 29 27 23 17 11 9 8 9 8 6 4 4 3 3 3 2 1 0 0 0 0 0 0 0 0 0 0 0 0 0 0 0 0
40 41 40 38 38 39 40 37 32 31 29 26 23 20 14 11 9 10 10 7 5 4 2 3 3 2 1 0 0 0 0 0 0 0 0 0 0 0 0 0 0 0 0
39 41 39 36 35 33 30 29 31 31 28 23 19 17 14 11 8 9 10 8 6 4 2 2 3 4 3 1 1 0 0 0 0 0 0 0 0 0 0 0 0 0 0
35 37 36 33 32 29 24 25 29 30 26 19 13 10 9 7 6 7 9 8 7 4 2 1 4 6 6 5 3 1 1 0 0 0 0 0 0 0 0 0 0 0 0
23 27 29 28 28 26 24 24 25 27 24 17 11 8 5 4 4 5 7 8 8 6 4 3 5 8 9 7 6 4 2 1 0 0 1 1 0 0 0 0 0 0 0
13 17 20 21 21 21 23 23 23 23 21 15 10 8 6 5 4 4 7 8 8 8 6 6 7 8 9 9 8 6 4 2 1 1 2 2 1 0 0 0 0 0 0
7 9 12 12 12 13 18 21 19 18 17 14 10 8 7 5 4 5 7 7 6 7 7 8 8 8 9 9 9 8 5 3 3 2 2 3 2 1 0 0 0 0 0
3 5 7 8 7 7 11 15 15 14 14 13 10 8 7 6 5 6 8 7 4 4 7 8 8 9 9 9 10 10 8 5 4 3 3 3 3 2 1 0 0 0 0
1 2 3 5 5 5 8 11 12 12 13 13 11 9 9 8 6 6 7 7 5 4 6 7 7 8 9 9 10 11 9 7 5 4 4 3 2 2 1 1 1 0 0
1 1 2 2 3 5 7 9 9 10 11 11 10 8 8 7 6 6 6 7 6 5 5 5 5 5 7 9 11 11 9 7 6 6 5 3 3 3 2 1 0 0 0
1 2 2 2 2 4 6 7 7 7 7 6 5 5 5 4 3 3 4 5 6 6 5 3 2 2 3 7 9 9 8 7 7 6 5 4 3 3 3 1 1 0 1
3 3 3 2 2 2 3 4 5 4 4 3 3 3 4 3 2 1 2 4 5 6 5 4 3 1 1 3 5 6 7 7 8 8 6 4 3 3 3 3 3 2 1
4 5 4 2 1 1 1 2 2 2 2 2 3 3 4 4 2 1 3 4 5 6 7 6 4 2 0 1 2 4 6 7 9 9 7 4 2 2 2 4 3 2 1
5 5 4 3 1 1 1 2 2 2 2 2 3 4 5 5 4 3 4 5 5 7 9 9 5 2 1 1 3 4 5 7 8 9 7 4 1 0 1 1 2 1 1
5 4 4 3 3 3 2 2 2 3 4 5 5 5 6 7 7 6 6 5 6 8 11 11 7 3 2 3 4 5 6 6 8 7 6 3 1 0 0 0 0 1 2
4 5 5 6 7 7 5 3 2 3 5 7 7 6 7 9 10 9 7 6 7 10 13 13 9 5 4 2 2 4 6 7 7 6 4 1 0 1 1 0 0 1 1
6 8 10 11 10 10 9 6 5 5 6 8 8 7 8 10 11 10 8 8 9 11 13 13 10 8 5 2 0 2 5 6 5 4 3 1 1 1 1 0 0 0 0
12 14 16 15 12 12 13 12 10 9 8 8 8 8 10 12 13 12 11 10 11 12 11 11 10 9 5 1 0 1 4 5 3 3 3 2 1 1 1 0 0 0 0
20 21 21 19 16 15 16 16 15 14 11 8 7 9 12 15 16 16 15 13 13 11 9 7 7 7 4 1 0 1 3 2 1 1 1 1 0 0 0 0 0 0 0
23 23 21 19 19 20 18 17 16 15 12 8 8 9 13 16 18 18 17 15 13 11 8 5 4 3 1 0 0 0 1 0 0 0 0 0 0 0 0 0 0 0 0
21 20 18 17 19 20 19 16 14 12 9 7 8 9 10 13 15 16 17 15 13 10 7 4 1 1 0 0 0 0 0 0 0 0 0 0 0 0 0 0 0 0 0
18 18 18 17 17 18 18 16 15 13 10 7 6 6 7 9 11 12 14 13 10 7 4 2 1 0 0 0 0 0 0 0 0 0 0 0 0 0 0 0 0 0 0
15 15 16 15 15 15 15 16 17 15 13 10 7 6 7 8 9 10 10 9 7 3 1 1 0 0 0 0 0 0 0 0 0 0 0 0 0 0 0 0 0 0 0
10 11 11 11 11 12 12 14 16 16 13 11 8 8 9 9 9 8 6 5 3 1 0 0 0 0 0 0 0 0 0 0 0 0 0 0 0 0 0 0 0 0 0
6 7 8 8 8 8 9 11 13 12 11 9 7 7 7 6 5 3 2 1 1 0 0 0 0 0 0 0 0 0 0 0 0 0 0 0 0 0 0 0 0 0 0
3 5 6 7 6 5 6 9 11 10 8 6 4 3 3 2 1 0 0 0 0 0 0 0 0 0 0 0 0 0 0 0 0 0 0 0 0 0 0 0 0 0 0

GEFSMW_con_probscp_132.txt.gz
Probability
81 80 76 73 76 78 75 72 70 67 56 46 40 36 32 25 21 23 25 20 16 14 11 10 9 7 7 8 7 4 2 1 0 0 0 0 0 0 0 0 0 0 0
81 79 75 73 76 77 75 70 69 66 56 46 40 37 32 25 21 23 26 22 17 14 12 12 11 10 10 11 9 6 4 1 0 0 0 0 0 0 0 0 0 0 0
78 77 74 73 75 76 72 68 67 64 55 46 40 37 33 27 22 23 25 24 20 18 17 17 17 15 13 13 12 9 5 2 1 1 0 0 0 0 0 0 0 1 1
71 72 71 69 71 72 69 66 65 62 54 47 43 38 32 27 24 23 22 22 21 20 20 22 23 20 16 14 12 10 7 4 3 2 1 0 1 1 0 0 0 1 2
60 64 66 66 67 67 64 61 60 58 53 49 46 41 33 27 24 23 20 19 18 17 20 24 26 26 22 17 13 11 10 7 5 4 3 2 3 2 1 0 0 1 1
51 55 59 61 63 60 55 53 53 53 51 48 46 42 35 28 25 23 19 16 16 16 17 20 25 29 29 24 17 13 12 10 8 7 6 5 5 3 1 0 0 0 0
43 45 48 51 53 49 46 46 48 48 46 44 41 38 33 28 25 22 18 15 14 16 17 17 22 28 30 26 21 16 14 12 10 9 7 6 5 4 3 2 2 1 1
32 35 37 41 43 41 39 40 42 41 40 38 34 31 29 26 25 23 19 15 12 15 19 20 23 27 27 25 24 20 15 12 10 9 6 4 4 5 4 4 4 3 2
24 27 31 35 37 36 33 31 31 31 31 30 28 25 24 25 25 23 18 13 12 14 17 20 24 28 26 25 26 22 16 13 11 9 6 3 3 5 5 4 5 3 2
20 23 27 29 29 27 25 21 19 20 21 22 21 20 21 22 21 18 14 12 11 11 13 18 22 26 26 26 26 21 16 14 13 10 7 3 4 5 5 4 5 4 4
19 21 23 22 19 17 16 14 14 15 15 15 17 17 17 17 15 12 11 13 13 10 10 15 19 21 23 25 24 18 14 13 12 11 9 6 5 6 7 4 4 5 5
20 21 20 17 14 11 11 12 14 14 14 15 17 16 14 13 12 12 13 13 13 11 11 15 18 17 19 23 22 16 11 11 11 11 10 9 8 10 8 5 4 4 5
24 25 23 20 15 12 10 10 11 12 14 17 18 16 13 14 15 14 14 13 13 13 13 15 18 17 18 21 21 17 14 12 10 9 9 9 10 11 10 6 4 4 3
29 30 30 27 23 18 13 9 8 10 13 16 17 16 16 16 16 16 14 13 14 15 15 16 19 19 18 18 18 18 17 14 11 9 9 9 10 10 8 6 3 2 1
30 32 32 31 28 23 17 11 9 10 13 15 16 16 17 17 17 17 16 15 15 15 16 16 19 19 17 14 13 15 15 13 11 10 9 9 8 7 5 3 1 0 0
31 31 33 32 29 25 21 16 13 15 17 17 16 16 16 16 16 17 17 16 15 15 15 15 16 15 12 9 7 9 11 11 10 9 8 7 6 4 2 1 0 0 0
35 33 32 31 28 25 24 22 19 20 22 20 17 16 16 15 15 16 16 16 15 14 14 13 13 11 7 4 2 4 8 11 9 8 7 6 5 3 1 0 0 0 0
42 38 32 30 30 28 28 26 23 23 23 21 19 17 16 15 14 16 16 15 14 13 12 11 10 7 4 2 1 2 6 8 7 7 7 6 5 3 1 0 0 0 0
48 43 37 35 36 35 32 29 26 24 21 19 18 17 15 16 17 18 18 17 15 13 11 8 7 5 3 1 0 1 3 4 3 4 4 4 3 2 0 0 0 0 0
49 45 41 42 42 40 37 32 28 25 21 19 19 17 17 20 21 20 20 18 16 13 10 8 7 6 3 1 0 0 1 1 1 2 2 1 1 0 0 0 0 0 0
43 42 41 42 42 40 36 31 27 24 22 21 20 19 19 20 21 19 17 16 14 11 9 9 8 6 3 1 0 0 0 0 0 1 1 0 0 0 0 0 0 0 0
38 38 40 40 39 37 33 27 25 23 22 21 21 20 18 15 14 15 14 13 11 8 8 8 7 5 3 1 0 0 0 0 0 0 0 0 0 0 0 0 0 0 0
34 36 36 35 34 33 30 26 24 24 22 21 21 19 15 11 11 12 12 11 10 8 7 7 5 3 1 1 0 0 0 0 0 0 0 0 0 0 0 0 0 0 0
30 31 30 28 27 28 26 24 23 22 19 17 17 14 10 9 10 10 9 9 8 7 7 6 3 1 0 0 0 0 0 0 0 0 0 0 0 0 0 0 0 0 0
24 25 25 23 23 23 21 19 19 16 13 12 11 8 6 6 6 5 3 3 4 4 5 4 2 0 0 0 0 0 0 0 0 0 0 0 0 0 0 0 0 0 0
21 23 23 22 21 20 18 16 15 12 10 9 7 5 4 4 3 2 0 0 1 1 2 2 1 0 0 0 0 0 0 0 0 0 0 0 0 0 0 0 0 0 0

GEFSMW_con_probscp_138.txt.gz
Probability
49 52 54 54 56 58 56 53 52 45 34 25 19 15 12 8 5 3 2 1 0 0 0 0 0 0 0 0 0 0 0 0 0 0 0 0 0 0 0 0 0 0 0
51 54 57 58 57 57 54 52 49 43 33 24 18 14 11 7 4 3 2 1 0 1 1 1 1 0 0 0 0 0 0 0 0 0 0 0 0 0 0 0 0 0 0
53 56 59 59 56 51 48 45 42 35 28 22 17 13 9 6 4 3 2 2 1 1 2 2 2 1 1 0 0 0 0 0 0 0 0 0 0 0 0 0 0 0 0
54 55 56 56 52 45 40 37 33 28 24 21 18 13 8 5 4 4 4 3 1 1 2 3 3 3 2 1 0 0 0 0 0 0 0 0 0 0 0 0 0 0 0
52 51 52 53 49 41 34 31 27 24 22 21 18 12 7 3 2 3 5 4 2 1 1 2 3 3 2 1 0 0 0 0 0 0 0 0 0 0 0 0 0 0 0
49 49 50 50 47 39 31 27 25 23 21 19 16 11 5 2 1 1 3 4 3 1 1 1 2 1 1 0 0 0 0 0 0 0 0 0 0 0 0 0 0 0 0
43 46 48 47 44 39 32 26 25 23 19 17 15 10 5 1 0 0 1 2 2 1 0 0 0 0 0 0 0 0 0 0 0 0 0 0 0 0 0 0 0 0 0
34 38 42 42 40 37 32 28 26 22 17 14 13 9 5 2 0 0 0 1 1 0 0 0 0 0 0 0 0 0 0 0 0 0 0 0 0 0 0 0 0 0 0
25 28 32 33 31 28 28 26 24 20 15 11 9 6 3 2 0 0 0 0 0 0 0 0 0 0 0 0 0 0 0 0 0 0 0 0 0 0 0 0 0 0 0
23 22 22 22 21 19 20 20 17 15 12 8 5 3 1 1 0 0 0 0 0 0 0 0 0 0 0 0 0 0 0 0 0 0 0 0 0 0 0 0 0 0 0
21 19 17 16 15 13 12 11 10 8 7 5 3 1 0 0 0 0 0 0 0 0 0 0 0 0 0 0 0 0 0 0 0 0 0 0 0 0 0 0 0 0 0
19 17 15 13 11 9 6 5 4 3 3 3 2 1 0 0 0 0 0 0 0 0 0 0 0 0 0 0 0 0 0 0 0 0 0 0 0 0 0 0 0 0 0
19 18 13 10 7 4 2 2 1 1 2 2 1 0 0 0 1 1 0 0 0 0 0 1 1 1 1 1 1 0 0 1 1 0 0 0 0 0 0 0 0 0 0
21 17 11 7 5 2 1 1 1 2 2 2 1 1 1 1 2 2 1 0 0 1 1 2 2 2 2 2 2 1 0 1 1 1 1 1 0 0 0 0 0 0 0
21 16 9 6 4 2 2 3 5 4 3 3 3 5 5 4 4 3 1 1 2 3 4 4 4 4 3 3 2 1 0 1 1 2 2 2 1 0 0 0 0 0 0
20 16 9 5 3 2 3 5 7 6 5 5 6 7 7 6 5 4 3 3 3 4 5 6 5 5 3 2 1 0 0 0 1 2 3 2 1 0 0 0 0 0 0
17 13 7 4 2 2 3 5 6 5 4 5 6 5 6 6 6 6 5 4 4 5 5 6 5 4 3 1 0 0 0 0 0 1 2 2 1 0 0 0 0 0 0
14 11 5 2 2 2 3 4 4 3 2 2 3 3 3 4 5 6 5 5 5 4 3 3 3 3 2 1 0 0 0 0 0 0 1 1 0 0 0 0 0 0 0
14 9 4 2 2 2 3 3 3 3 1 0 1 1 1 2 4 4 3 3 3 2 1 1 1 1 1 0 0 0 0 0 0 0 0 0 0 0 0 0 0 0 0
12 8 4 3 2 2 3 3 3 3 2 1 0 0 0 1 1 1 1 1 1 1 0 0 0 0 0 0 0 0 0 0 0 0 0 0 0 0 0 0 0 0 0
10 7 6 5 3 2 3 3 3 4 3 2 0 0 0 0 0 0 0 0 0 0 0 0 0 0 0 0 0 0 0 0 0 0 0 0 0 0 0 0 0 0 0
10 8 8 7 4 3 3 2 3 3 4 3 1 0 0 0 0 0 0 0 0 0 0 1 1 1 0 0 0 0 0 0 0 0 0 0 0 0 0 0 0 0 0
11 11 9 7 4 4 4 2 2 3 3 3 2 0 0 0 0 0 0 0 0 0 0 2 3 2 1 1 0 0 0 0 0 0 0 0 0 0 0 0 0 0 0
12 11 9 7 4 3 3 2 2 3 3 1 1 0 0 0 0 0 0 0 0 0 0 1 3 3 1 0 0 0 0 0 0 0 0 0 0 0 0 0 0 0 0
10 8 7 6 4 3 2 2 3 3 2 1 0 0 0 0 0 0 0 0 0 0 0 0 1 1 0 0 0 0 0 0 0 0 0 0 0 0 0 0 0 0 0
7 6 6 6 5 3 2 2 3 3 1 0 0 0 0 0 0 0 0 0 0 0 0 0 0 0 0 0 0 0 0 0 0 0 0 0 0 0 0 0 0 0 0

GEFSMW_con_probscp_144.txt.gz
Probability
22 26 30 33 34 30 25 19 12 7 5 6 6 3 2 1 0 0 0 0 0 0 0 0 0 0 0 0 0 0 0 0 0 0 0 0 0 0 0 0 0 0 0
24 28 33 34 34 33 27 19 14 9 6 5 4 2 1 0 0 0 0 0 0 0 0 0 0 0 0 0 0 0 0 0 0 0 0 0 0 0 0 0 0 0 0
28 33 35 34 32 29 24 19 16 12 8 6 4 2 1 1 0 0 0 0 0 0 0 0 0 0 0 0 0 0 0 0 0 0 0 0 0 0 0 0 0 0 0
32 34 34 31 29 24 20 18 17 14 10 8 6 5 4 3 2 1 0 0 0 0 0 0 0 0 0 0 0 0 0 0 0 0 0 0 0 0 0 0 0 0 0
32 31 29 27 26 22 19 18 17 14 11 9 7 5 4 4 3 2 1 0 0 0 0 0 0 0 0 0 0 0 0 0 0 0 0 0 0 0 0 0 0 0 0
26 25 23 24 24 22 21 21 18 15 12 10 8 5 4 4 3 3 2 1 0 0 0 0 0 0 0 0 0 0 0 0 0 0 0 0 0 0 0 0 0 0 0
19 18 20 23 26 25 24 22 19 16 13 12 10 7 4 4 3 3 2 1 1 1 1 1 0 0 0 0 0 0 0 0 0 0 0 0 0 0 0 0 0 0 0
13 15 20 25 27 26 23 20 17 13 12 13 11 7 5 4 2 1 2 2 2 2 1 0 0 0 0 0 0 0 0 0 0 0 0 0 0 0 0 0 0 0 0
10 14 20 23 22 19 17 15 12 11 10 9 8 6 4 4 2 1 1 1 1 1 1 0 0 0 0 0 0 0 0 0 0 0 0 0 0 0 0 0 0 0 0
11 14 17 18 15 11 10 10 9 9 7 5 3 3 3 3 3 1 0 0 0 0 0 0 0 0 0 0 0 0 0 0 0 0 0 0 0 0 0 0 0 0 0
12 12 12 12 9 6 6 6 6 6 5 2 1 1 2 2 2 1 0 0 0 0 0 0 0 0 0 0 0 0 0 0 0 0 0 0 0 0 0 0 0 0 0
11 10 9 9 8 6 4 4 4 4 3 1 0 0 1 1 1 1 0 0 0 0 0 0 0 0 0 0 0 0 0 0 0 0 0 0 0 0 0 0 0 0 0
11 10 9 9 8 5 4 3 3 2 1 0 0 0 0 0 0 0 0 0 0 0 0 0 0 0 0 0 0 0 0 0 0 0 0 0 0 0 0 0 0 0 0
13 13 11 8 5 4 3 2 2 1 0 0 0 0 0 0 0 0 0 0 0 0 0 1 1 1 1 1 1 1 1 1 0 0 0 0 0 0 0 0 0 0 0
15 14 10 6 4 3 1 1 1 0 0 0 0 0 0 0 0 0 0 0 0 1 2 3 3 3 3 2 2 2 2 2 1 1 0 0 0 0 0 0 0 0 0
14 11 8 5 3 2 1 0 0 0 0 0 0 0 0 0 0 0 0 0 1 3 4 4 4 4 4 3 1 1 2 2 2 1 0 0 0 0 0 0 0 0 0
10 8 5 4 2 1 0 0 0 0 0 0 0 0 0 0 0 0 0 0 1 4 5 4 4 4 3 2 1 0 1 1 2 1 0 0 0 0 0 0 0 0 0
7 5 3 2 1 0 0 0 0 0 0 0 0 0 0 0 0 0 0 0 1 2 3 3 2 2 1 1 0 0 0 0 0 0 0 0 0 0 0 0 0 0 0
6 5 3 2 1 0 0 0 0 0 0 0 0 0 0 0 0 0 0 0 0 1 1 1 1 1 0 0 0 0 0 0 0 0 0 0 0 0 0 0 0 0 0
5 4 2 1 0 0 0 0 0 0 0 0 0 0 0 0 0 0 0 0 0 0 0 0 0 0 0 0 0 0 0 0 0 0 0 0 0 0 0 0 0 0 0
5 3 1 0 0 0 0 0 0 0 0 0 0 0 0 0 0 0 0 0 0 0 0 0 0 0 0 0 0 0 0 0 0 0 0 0 0 0 0 0 0 0 0
7 5 2 0 0 0 0 0 0 0 0 0 0 0 0 0 0 0 0 0 0 0 0 0 0 0 0 0 0 0 0 0 0 0 0 0 0 0 0 0 0 0 0
8 7 5 2 0 0 0 0 0 0 0 0 0 0 0 0 0 0 0 0 0 0 0 0 0 0 0 0 0 0 0 0 0 0 0 0 0 0 0 0 0 0 0
7 7 6 3 1 0 0 0 0 0 0 0 0 0 0 0 0 0 0 0 0 0 0 0 0 0 0 0 0 0 0 0 0 0 0 0 0 0 0 0 0 0 0
5 4 3 2 1 0 0 0 0 0 0 0 0 0 0 0 0 0 0 0 0 0 0 0 0 0 0 0 0 0 0 0 0 0 0 0 0 0 0 0 0 0 0
4 3 1 1 1 0 0 0 0 0 0 0 0 0 0 0 0 0 0 0 0 0 0 0 0 0 0 0 0 0 0 0 0 0 0 0 0 0 0 0 0 0 0

GEFSMW_con_probscp_150.txt.gz
Probability
27 30 31 35 40 40 37 34 30 28 26 26 26 22 16 11 9 7 5 2 1 0 0 0 0 0 1 1 2 3 2 1 0 0 0 0 0 0 0 0 0 0 0
30 33 34 35 39 40 37 33 32 31 29 28 25 19 14 11 9 7 4 2 0 0 0 0 0 1 2 3 3 3 3 1 0 0 0 0 0 0 0 0 0 0 0
32 37 39 37 37 38 37 34 35 35 33 29 22 18 16 14 10 6 3 2 1 1 0 0 1 2 4 5 4 3 3 2 1 0 1 1 0 0 0 0 0 0 0
33 39 43 40 36 34 34 35 37 37 34 28 23 20 18 14 10 7 5 4 3 2 1 0 1 2 4 4 3 3 3 2 1 1 2 2 1 0 0 0 0 0 0
33 39 42 39 34 30 29 31 34 35 32 27 25 22 17 12 10 10 9 7 5 4 2 1 0 1 2 2 1 1 2 2 1 1 2 2 2 2 1 0 0 0 0
31 35 36 34 31 28 27 28 30 30 28 26 24 22 18 15 15 14 12 10 9 7 4 2 1 2 2 2 1 1 1 1 0 0 1 2 2 3 3 2 1 0 0
25 28 28 28 30 29 28 27 26 26 25 24 21 20 19 18 17 15 13 12 12 9 6 5 5 6 5 4 4 4 3 2 1 1 3 4 5 5 5 4 3 1 0
20 21 22 26 31 32 30 28 26 25 24 23 20 18 16 14 12 10 10 10 9 7 6 7 8 8 6 6 7 8 6 5 3 3 7 10 9 8 8 9 8 5 2
16 17 21 27 33 34 32 29 27 25 25 23 20 16 12 9 6 5 6 7 6 4 4 7 8 7 7 7 9 9 8 7 8 10 13 14 14 13 13 13 13 11 8
15 17 22 27 31 30 28 26 26 25 24 21 17 13 9 6 4 4 4 4 4 3 4 5 7 8 7 7 8 9 8 9 11 14 14 14 16 17 17 16 17 17 15
16 20 24 25 24 22 21 22 23 22 19 15 12 10 8 5 4 4 3 2 3 3 3 4 6 7 7 6 7 7 7 9 12 12 12 11 15 18 18 18 18 17 16
19 22 24 22 17 16 17 20 19 16 12 9 9 9 7 5 3 3 2 1 1 1 3 4 5 6 6 6 6 7 9 11 12 12 11 10 13 15 16 17 16 13 12
23 23 24 21 17 16 17 16 13 9 6 6 7 7 6 5 3 2 2 2 1 1 2 3 4 4 4 5 7 9 12 13 14 14 13 11 11 12 13 15 14 11 9
27 24 24 23 20 19 18 14 9 6 4 4 5 5 4 4 3 2 3 3 3 3 3 4 4 4 4 5 8 10 12 13 14 14 13 10 9 9 10 12 13 10 8
32 29 27 25 24 21 19 15 10 6 5 4 4 3 2 2 2 3 4 4 3 3 5 6 6 5 4 5 8 9 10 10 10 10 9 7 6 6 6 7 8 8 6
35 33 30 27 25 22 20 17 12 9 8 7 4 3 1 1 2 3 4 4 4 4 6 7 7 6 5 4 5 6 7 6 5 5 5 4 3 3 2 2 2 3 3
38 35 31 30 28 23 20 16 12 10 10 8 5 3 2 1 2 2 3 5 6 6 6 6 6 5 4 3 2 2 3 3 3 2 3 3 2 1 0 0 0 0 1
43 39 35 34 31 24 18 14 11 9 8 6 4 3 2 1 1 1 2 4 5 6 5 4 3 2 1 1 0 0 1 1 1 1 2 3 2 1 0 0 0 1 1
46 44 39 35 30 23 16 12 9 7 5 4 3 3 2 1 0 1 2 3 4 4 3 3 2 1 0 0 0 0 0 0 0 1 2 3 2 1 0 0 1 2 3
50 47 40 32 26 22 17 12 10 7 4 2 3 3 3 2 1 1 2 2 3 3 2 2 2 1 0 0 0 0 0 1 1 2 3 2 1 0 0 1 3 4 4
53 49 39 30 25 23 20 17 13 8 4 3 3 4 4 3 3 3 3 2 3 3 2 2 1 1 1 0 0 0 0 1 3 4 5 3 1 0 0 1 3 4 3
52 47 40 33 27 24 23 20 14 9 5 3 4 5 5 4 4 4 5 5 4 4 3 3 2 2 2 1 0 0 0 1 3 4 5 3 1 0 0 0 1 1 1
45 43 39 34 29 25 22 18 12 7 5 4 4 6 6 6 5 6 6 6 5 4 3 3 2 3 2 1 0 0 0 0 1 2 2 1 0 0 0 0 0 0 0
38 38 36 33 27 22 18 13 8 7 6 4 4 6 7 7 7 7 7 6 5 4 2 2 2 2 2 1 0 0 0 0 0 0 0 0 0 0 0 0 0 0 0
33 31 31 27 20 15 13 9 7 7 7 6 5 5 5 6 6 6 5 5 4 2 1 1 2 2 2 1 0 0 0 0 0 0 0 0 0 0 0 0 0 0 0
29 27 25 22 16 11 9 7 6 7 7 7 6 5 4 4 4 4 4 3 2 1 0 1 2 2 1 0 0 0 0 0 0 0 0 0 0 0 0 0 0 0 0

GEFSMW_con_probscp_156.txt.gz
Probability
72 74 72 68 67 68 68 64 60 56 48 40 35 33 33 30 23 20 20 19 13 9 7 5 4 5 6 6 5 4 2 1 0 0 0 0 0 0 0 0 1 1 1
72 74 72 68 68 70 69 65 61 57 50 42 35 31 30 26 19 17 19 19 14 11 9 7 6 5 6 7 7 5 4 2 1 0 0 0 0 0 0 0 1 2 2
73 74 73 69 69 70 68 64 61 58 53 46 36 29 27 22 17 16 20 20 16 13 11 9 7 5 4 6 7 6 4 3 2 2 1 1 0 0 0 0 2 5 6
71 73 72 69 68 68 66 64 63 60 56 49 39 31 26 22 19 19 22 23 20 14 11 10 9 6 4 5 6 6 5 5 3 2 2 2 1 0 0 0 2 5 7
66 67 68 66 64 62 61 63 62 58 53 48 41 33 28 24 21 20 22 23 19 13 11 10 10 9 6 5 7 8 8 6 5 3 3 3 2 1 0 0 1 3 4
58 60 61 61 60 57 56 57 57 52 48 46 42 35 29 25 20 19 20 19 15 13 11 10 9 9 8 8 8 10 10 8 8 7 7 5 5 3 2 0 0 1 1
50 51 52 55 55 53 53 53 53 51 47 46 44 38 30 23 18 17 17 16 14 13 14 12 10 9 9 10 9 10 11 11 11 11 11 11 11 8 6 3 2 1 0
43 43 44 47 49 49 52 55 54 51 47 45 44 38 29 20 15 14 15 14 13 13 13 14 12 11 10 10 9 9 11 14 14 12 13 16 16 14 11 9 7 4 1
38 38 39 42 44 46 49 54 55 49 44 41 37 32 26 18 12 9 9 10 10 9 9 10 10 10 10 11 10 10 13 17 17 14 13 15 16 14 14 15 15 9 4
35 34 36 38 41 44 47 51 50 44 38 35 29 23 20 15 9 6 6 9 10 10 8 7 7 8 10 12 12 11 13 18 19 16 13 14 14 13 15 17 17 13 8
33 33 34 36 39 43 47 47 44 38 34 30 22 16 16 13 10 9 9 11 12 12 11 10 9 8 9 13 14 12 11 14 16 14 13 14 14 14 16 17 16 13 11
36 36 36 37 39 43 46 44 38 33 30 24 17 14 14 15 15 15 15 15 14 14 14 14 11 8 9 13 14 10 7 8 9 9 10 12 14 14 15 15 14 12 11
43 44 46 46 47 48 46 40 33 28 24 20 16 15 15 15 17 18 19 20 20 18 16 14 11 9 11 12 11 8 5 4 3 4 6 9 11 10 10 10 11 10 10
51 54 59 60 60 59 51 41 32 28 24 21 19 18 16 15 16 18 20 22 23 22 18 14 11 11 12 11 9 7 5 3 3 2 3 5 7 6 5 6 7 8 8
57 62 67 68 67 64 54 44 37 32 27 24 22 19 17 16 17 18 19 20 21 21 19 15 11 10 9 7 6 6 5 5 4 2 2 3 3 2 2 3 3 3 4
60 63 67 67 66 62 53 44 38 32 26 24 22 19 18 17 16 16 17 17 16 17 16 13 10 9 6 3 2 3 4 4 3 3 3 2 1 0 1 1 1 0 1
60 63 65 65 63 58 51 42 34 28 25 23 21 19 18 17 15 14 15 14 12 13 13 11 10 8 5 1 0 1 2 2 1 2 3 2 1 0 0 0 0 0 0
65 66 67 65 62 57 49 39 30 26 24 21 18 17 17 17 15 14 13 12 10 10 10 9 9 8 6 2 0 0 0 0 1 2 3 2 1 0 0 0 0 0 1
70 70 69 67 64 60 52 39 29 24 21 17 16 16 17 17 15 14 12 11 10 9 8 7 7 7 5 2 0 0 0 1 1 3 3 2 1 0 0 0 1 1 2
71 71 70 68 65 63 56 43 31 24 19 16 16 17 17 16 14 11 11 10 10 8 7 6 6 6 5 2 0 0 0 1 2 3 2 1 0 0 0 0 1 2 3
72 72 71 68 66 63 56 45 36 28 21 18 18 17 15 13 10 9 10 10 9 8 8 8 7 6 5 2 1 0 0 1 2 2 1 0 0 0 0 0 1 2 2
74 73 71 69 67 62 54 46 39 31 23 19 19 17 15 11 8 8 9 9 9 8 8 8 8 7 6 4 1 0 0 0 1 1 0 0 0 0 0 0 0 1 1
73 71 69 66 62 56 49 43 38 32 26 23 22 20 16 12 11 10 8 8 8 7 7 6 6 6 7 5 1 0 0 0 0 0 0 0 0 0 0 0 0 0 0
66 64 61 58 55 50 45 40 36 31 27 25 25 22 15 12 13 12 9 8 8 8 6 5 3 4 5 4 1 0 0 0 0 0 0 0 0 0 0 0 0 0 0
57 54 51 49 49 46 41 36 32 28 25 24 23 18 12 10 11 11 9 7 6 6 6 4 2 2 2 2 0 0 0 0 0 0 0 0 0 0 0 0 0 0 0
51 48 44 44 45 42 38 33 29 25 21 21 18 13 10 9 9 8 6 4 3 3 3 2 1 1 1 0 0 0 0 0 0 0 0 0 0 0 0 0 0 0 0

GEFSMW_con_probscp_162.txt.gz
Probability
61 66 68 64 55 46 42 39 37 36 31 24 17 10 7 9 8 5 2 2 2 1 0 0 0 0 0 0 0 0 0 0 0 0 0 0 0 0 0 0 0 0 0
65 67 69 65 58 49 43 40 38 34 28 21 14 10 7 8 9 6 3 1 2 1 1 0 0 0 0 0 0 0 0 0 0 0 0 0 0 0 0 0 0 0 0
68 70 70 67 61 51 44 41 37 31 25 18 13 11 8 8 9 8 3 1 1 2 2 1 0 0 0 0 0 0 0 0 0 0 0 0 0 0 0 0 0 0 0
68 69 69 68 61 51 45 42 38 32 25 19 16 13 10 9 8 6 3 1 0 1 2 2 1 0 0 0 0 0 0 0 0 0 0 0 0 0 0 0 0 0 0
65 64 64 63 57 50 45 43 39 35 29 24 20 15 12 9 6 5 3 1 0 1 2 2 1 0 0 0 0 0 0 0 0 0 0 0 0 0 0 0 0 0 0
61 59 56 54 51 47 44 41 38 36 32 27 22 17 13 8 5 5 4 2 0 1 2 2 1 0 0 0 0 0 0 0 0 0 0 0 0 0 0 0 0 0 0
55 53 49 46 44 41 38 35 33 31 31 28 22 16 11 6 4 4 4 3 1 1 1 1 0 0 0 0 0 0 0 0 0 0 0 0 0 0 0 0 0 0 0
43 42 40 38 35 32 30 27 25 25 25 24 18 13 8 4 2 3 3 2 2 1 0 0 0 0 0 0 0 0 0 0 0 0 0 0 0 0 0 0 0 0 0
30 30 31 29 27 26 25 21 19 19 19 18 14 10 7 4 2 1 1 1 1 0 0 0 0 0 0 0 1 2 1 1 1 1 0 0 0 0 0 0 0 0 0
24 25 24 22 21 23 22 19 16 16 15 12 11 9 7 5 2 0 0 0 0 0 0 0 0 0 0 0 1 2 2 2 2 1 1 1 1 0 0 0 0 0 0
24 25 24 21 20 21 20 18 15 13 12 11 10 9 7 5 3 1 0 0 0 0 0 0 0 0 0 0 1 1 1 1 1 1 1 1 1 0 0 0 0 0 0
28 29 28 26 24 24 22 19 14 12 11 12 12 10 8 7 4 2 1 1 1 0 0 0 0 0 0 0 0 0 1 1 1 1 1 1 1 0 0 0 0 0 0
30 32 33 31 30 30 27 22 17 14 14 14 13 11 9 8 5 3 2 2 2 1 1 1 1 0 0 0 0 0 1 1 1 1 2 2 2 1 0 0 0 1 1
33 34 34 31 29 29 29 26 21 18 17 16 15 12 9 6 4 3 3 3 2 2 2 2 1 0 0 0 0 0 0 0 0 1 2 2 2 1 0 0 0 0 0
39 38 36 30 25 24 27 27 23 18 17 16 13 11 7 4 3 3 2 2 2 1 1 1 1 0 0 0 0 0 0 0 0 0 1 1 1 1 0 0 0 0 0
45 44 42 36 27 23 24 23 17 12 11 11 10 8 5 4 3 2 1 1 2 1 1 0 0 0 0 0 0 0 0 0 0 0 0 0 0 0 0 0 0 0 0
49 49 48 43 33 25 21 16 10 7 6 7 7 6 4 3 3 3 2 2 2 2 1 0 0 0 0 0 0 0 0 0 0 0 0 0 0 0 0 0 0 0 0
51 51 50 44 35 26 19 12 9 7 6 5 5 4 3 3 3 4 3 2 1 1 0 0 0 0 0 0 0 0 0 0 0 0 0 0 0 0 0 0 0 0 0
50 49 48 44 37 28 21 15 10 8 6 5 4 3 4 5 4 4 3 1 0 0 0 0 0 0 0 0 0 0 0 0 0 0 0 0 0 0 0 0 0 0 0
51 49 47 45 40 33 27 20 12 8 6 5 4 4 6 7 5 3 1 0 0 0 0 0 0 0 0 0 0 0 0 0 0 0 0 0 0 0 0 0 0 0 0
54 48 44 42 38 34 27 20 14 10 8 7 6 6 7 6 3 1 0 0 0 0 0 0 0 0 0 0 0 0 0 0 0 0 0 0 0 0 0 0 0 0 0
50 45 40 37 35 31 25 18 14 12 11 10 8 7 5 2 1 0 0 0 0 0 0 0 0 0 0 0 0 0 0 0 0 0 0 0 0 0 0 0 0 0 0
45 41 38 37 34 29 23 17 13 12 12 10 8 5 2 0 0 0 0 0 0 0 0 0 0 0 0 0 0 0 0 0 0 0 0 0 0 0 0 0 0 0 0
41 38 37 35 31 25 20 15 12 11 10 9 7 5 2 0 0 0 0 0 0 0 0 0 0 0 0 0 0 0 0 0 0 0 0 0 0 0 0 0 0 0 0
34 32 31 28 23 18 15 12 10 9 8 7 6 5 2 1 1 1 0 0 0 0 0 0 0 0 0 0 0 0 0 0 0 0 0 0 0 0 0 0 0 0 0
28 26 25 21 17 13 11 11 9 8 7 5 4 4 2 1 2 2 1 1 1 0 0 0 0 0 0 0 0 0 0 0 0 0 0 0 0 0 0 0 0 0 0

GEFSMW_con_probscp_168.txt.gz
Probability
13 14 15 17 19 18 15 12 9 7 7 7 5 3 1 0 1 2 2 1 1 1 1 0 0 0 0 0 0 0 0 0 0 0 0 0 0 0 0 0 0 0 0
17 17 17 18 21 21 18 15 10 8 8 8 6 3 1 1 1 2 3 2 1 0 0 0 0 0 0 0 0 0 0 0 0 0 0 0 0 0 0 0 0 0 0
24 22 21 21 22 23 22 18 12 10 10 10 9 6 4 3 3 3 3 2 1 0 0 0 0 0 0 0 0 0 0 0 0 0 0 0 0 0 0 0 0 0 0
30 27 25 24 21 21 21 18 13 11 10 10 10 9 7 5 3 2 3 2 1 1 0 0 0 0 0 0 0 0 0 0 0 0 0 0 0 0 0 0 0 0 0
34 31 27 22 19 20 20 17 14 12 10 9 8 8 8 5 2 1 1 1 1 0 0 0 0 0 0 0 0 0 0 0 0 0 0 0 0 0 0 0 0 0 0
33 30 25 20 18 21 22 18 15 14 11 9 7 6 6 4 2 1 0 0 0 0 0 0 0 0 0 0 0 0 0 0 0 0 0 0 0 0 0 0 0 0 0
28 25 20 16 16 19 20 17 15 13 11 8 6 5 4 3 3 2 1 0 0 0 0 0 0 0 0 0 0 0 0 0 0 0 0 0 0 0 0 0 0 0 0
22 20 15 12 12 15 15 13 11 9 8 7 6 4 4 3 3 2 1 0 0 0 0 0 0 0 0 0 0 0 0 0 0 0 0 0 0 0 0 0 0 0 0
16 15 13 11 12 14 14 11 8 7 6 6 6 5 4 3 3 2 1 0 0 0 0 0 0 0 0 0 0 0 0 0 0 0 0 0 0 0 0 0 0 0 0
12 12 12 12 13 14 14 11 8 6 6 5 5 5 4 4 4 3 2 2 2 1 1 0 0 0 0 0 0 0 0 0 0 0 0 0 0 0 0 0 0 0 0
12 12 12 12 13 16 15 12 8 5 4 4 4 5 5 5 5 5 5 5 5 3 2 1 1 1 0 0 0 0 0 0 0 0 0 0 0 0 0 1 1 0 0
14 15 14 14 15 16 15 12 8 5 4 4 4 6 6 6 5 6 6 6 6 5 4 3 2 2 1 0 0 0 0 0 0 0 0 0 0 0 1 2 1 0 0
14 14 15 17 18 17 15 12 9 7 5 5 6 7 7 6 6 6 6 6 6 6 4 3 3 3 1 0 0 0 0 0 0 0 0 0 0 0 1 1 1 0 0
11 13 17 20 20 16 12 10 9 8 7 5 6 7 6 6 6 6 5 5 5 5 4 3 3 3 2 1 1 0 0 0 0 0 0 0 0 0 0 0 0 0 0
13 16 20 21 19 14 10 8 8 8 7 5 5 5 5 5 5 5 4 4 4 4 2 2 2 2 2 2 1 0 0 0 0 0 0 0 0 0 0 0 0 0 0
20 23 24 22 18 15 11 7 7 8 7 5 3 3 4 5 5 5 4 3 3 3 2 1 1 1 1 1 1 0 0 0 0 0 0 0 0 0 0 0 0 0 0
26 27 26 22 19 17 12 7 5 6 6 4 3 3 4 4 5 5 4 4 4 3 2 1 0 0 0 0 0 0 0 0 0 0 0 0 0 0 0 0 0 0 0
27 27 25 22 19 17 14 8 5 4 4 3 3 4 4 4 4 4 4 4 4 3 2 1 0 0 0 0 0 0 0 0 0 0 0 0 0 0 0 0 0 0 0
26 26 25 22 18 16 16 12 8 5 4 3 4 4 5 4 4 4 3 3 3 2 1 0 0 0 0 0 0 0 0 0 0 0 0 0 0 0 0 0 0 0 0
28 26 24 21 17 16 17 16 12 7 5 3 3 4 5 5 5 4 3 2 1 0 0 0 0 0 0 0 0 0 0 0 0 0 0 0 0 0 0 0 0 0 0
28 25 22 19 17 16 16 16 13 9 6 5 4 3 4 5 5 3 2 1 0 0 0 0 0 0 0 0 0 0 0 0 0 0 0 0 0 0 0 0 0 0 0
25 23 19 17 16 16 16 15 14 12 10 7 5 3 2 3 3 2 1 1 0 0 0 0 0 0 0 0 0 0 0 0 0 0 0 0 0 0 0 0 0 0 0
23 21 19 17 16 16 16 16 16 15 12 9 6 4 3 3 3 1 0 1 1 0 0 0 0 0 0 0 0 0 0 0 0 0 0 0 0 0 0 0 0 0 0
23 22 21 20 17 14 13 13 14 13 12 9 6 5 4 5 4 1 0 1 1 0 0 0 0 0 0 0 0 0 0 0 0 0 0 0 0 0 0 0 0 0 0
22 23 22 19 14 10 8 7 8 8 8 8 6 5 4 4 3 1 0 1 1 0 0 0 0 0 0 0 0 0 0 0 0 0 0 0 0 0 0 0 0 0 0
22 21 20 17 11 6 4 4 5 5 6 6 6 5 4 3 2 1 0 0 0 0 0 0 0 0 0 0 0 0 0 0 0 0 0 0 0 0 0 0 0 0 0

GEFSMW_con_probscp_174.txt.gz
Probability
26 26 25 23 26 33 35 32 28 24 20 14 7 2 1 1 2 2 1 0 0 0 0 0 1 1 1 2 2 1 0 0 0 1 1 0 0 0 0 0 0 1 0
30 30 28 27 31 37 38 36 31 26 22 17 10 6 4 2 1 1 0 0 0 0 0 0 1 1 2 2 1 0 0 0 1 2 2 1 0 0 0 0 0 1 1
33 34 34 33 34 38 39 37 33 28 25 22 16 13 11 8 4 2 0 0 0 0 0 0 0 1 2 2 1 0 1 1 2 4 4 3 1 0 0 0 0 1 1
34 35 34 33 33 34 34 33 30 28 27 26 22 20 18 14 8 3 1 0 0 0 0 0 0 1 1 1 0 0 2 3 4 5 6 5 3 2 1 1 1 2 2
34 33 32 30 30 30 31 30 28 27 27 26 23 21 20 16 10 6 3 1 0 0 0 0 1 1 1 0 1 1 2 3 5 6 6 6 6 5 4 3 3 3 3
30 30 30 28 26 27 28 29 28 26 24 23 22 21 20 17 14 9 6 3 1 1 1 2 2 2 2 1 2 2 1 2 4 6 6 7 7 7 7 6 4 3 2
24 25 26 25 23 22 24 27 27 24 20 20 21 21 20 19 17 12 8 5 2 2 3 5 5 5 4 3 4 4 3 3 4 6 7 8 8 8 9 8 6 3 3
19 20 23 22 19 18 22 26 27 24 20 18 18 17 17 17 15 11 8 6 5 5 6 8 8 6 5 5 6 6 6 6 5 7 9 10 9 9 9 10 9 6 4
16 19 22 22 18 19 21 24 25 24 21 18 16 13 13 13 11 9 7 7 8 8 9 8 8 7 6 7 8 9 8 8 8 8 10 11 10 9 8 9 11 9 5
22 24 27 25 22 21 21 20 21 23 22 19 15 12 10 9 8 8 9 9 9 10 10 8 7 7 8 10 12 12 10 9 9 9 9 9 8 6 6 7 9 8 6
30 32 32 29 27 25 20 16 16 19 18 16 14 12 9 8 7 9 11 10 10 11 11 9 8 8 9 11 13 13 11 9 8 7 7 7 6 5 4 5 7 6 5
35 37 38 35 33 29 23 17 15 14 14 12 12 11 9 9 10 12 13 12 11 12 12 11 10 9 9 10 11 11 9 8 6 6 6 6 6 5 4 4 5 5 5
39 41 43 41 37 35 30 23 17 13 12 12 13 13 12 12 14 15 15 13 12 13 14 13 12 10 8 7 6 7 7 7 6 5 6 6 6 6 5 4 4 4 5
43 45 47 45 42 40 35 28 22 18 17 17 17 16 15 14 15 17 17 16 14 13 14 14 13 10 6 4 4 4 5 5 5 4 5 6 6 5 4 4 4 6 6
43 46 49 51 50 46 39 31 27 26 23 20 19 19 17 15 15 17 18 17 16 13 11 11 10 6 3 2 3 3 3 3 3 3 4 4 4 3 3 3 4 6 7
46 49 54 60 61 55 47 38 32 29 25 21 20 20 19 16 15 15 16 16 15 13 10 8 7 4 2 1 1 1 2 2 3 4 4 4 3 1 1 1 2 3 4
49 53 59 66 68 63 54 44 36 30 26 23 20 18 16 13 11 11 12 13 13 12 12 10 9 6 3 0 0 0 0 1 2 4 5 5 3 1 1 1 1 1 2
48 52 58 64 67 62 53 44 39 35 30 25 20 14 10 8 8 10 12 13 14 14 15 14 13 10 5 1 0 0 1 1 2 4 5 5 3 2 2 2 2 2 2
48 50 55 61 63 59 49 42 39 37 32 25 19 12 7 6 8 12 15 17 18 18 18 17 15 11 6 2 1 1 2 2 3 3 4 3 3 2 2 2 3 3 3
53 53 57 62 62 57 49 42 38 35 30 23 16 12 10 9 11 15 18 20 20 19 20 19 16 11 6 3 1 1 2 3 2 2 2 1 1 1 0 1 2 2 2
55 58 62 64 62 56 49 42 37 34 28 21 15 13 12 10 12 16 18 19 19 19 19 18 14 10 6 3 1 1 1 1 1 1 1 0 0 0 0 0 1 1 1
53 57 62 62 60 54 47 42 39 34 29 23 18 16 13 12 14 17 17 16 17 17 16 13 10 8 6 3 1 0 0 0 0 0 0 0 0 0 0 0 0 0 0
52 54 57 58 57 53 46 43 41 37 33 28 24 21 18 17 17 17 16 15 14 13 11 8 6 5 5 3 2 1 0 0 0 0 0 0 0 0 0 0 0 0 0
51 52 53 53 53 51 48 45 42 40 38 33 27 23 21 19 17 15 14 12 11 9 8 6 4 4 5 4 2 1 1 1 1 0 0 0 0 0 0 0 0 0 0
47 48 48 48 46 45 45 44 42 41 38 33 27 21 17 15 13 11 10 9 7 6 5 5 4 4 3 2 1 1 1 1 1 0 0 0 0 0 0 0 0 0 0
43 44 45 44 40 37 39 40 40 39 37 32 25 17 12 11 10 10 9 7 5 5 4 4 4 2 1 0 0 0 0 1 1 0 0 0 0 0 0 0 0 0 0

GEFSMW_con_probscp_180.txt.gz
Probability
50 57 64 70 73 73 70 64 58 52 44 36 32 30 29 27 23 17 13 12 10 8 7 7 10 11 10 8 5 3 2 1 0 1 1 1 2 2 1 2 3 2 0
58 62 67 70 72 73 70 64 58 54 47 40 33 29 28 27 23 18 15 13 11 8 7 8 10 12 11 9 6 4 2 1 0 1 1 1 1 1 1 4 6 6 4
64 68 70 70 71 71 68 62 59 56 52 44 36 29 29 29 24 20 18 16 14 10 8 8 11 13 14 11 7 5 3 1 0 1 1 0 0 1 2 4 6 10 11
63 69 71 69 69 68 65 61 59 57 53 47 38 32 31 29 24 20 19 18 16 13 10 10 11 14 15 12 8 6 5 3 1 1 0 1 1 2 2 2 4 7 10
60 65 68 67 65 65 63 61 60 57 53 47 39 33 29 26 20 17 18 17 16 14 12 13 15 17 16 13 11 9 8 7 5 4 3 3 4 4 3 2 2 3 4
55 59 63 64 64 63 63 62 61 58 52 44 37 31 27 24 19 16 16 17 16 14 14 15 18 20 18 16 14 13 11 11 11 9 8 7 6 5 5 3 3 3 3
49 53 59 61 61 60 61 62 62 58 50 41 35 32 29 26 23 20 19 18 16 14 14 16 19 19 18 17 16 15 14 14 13 12 11 9 7 6 6 6 5 4 2
45 48 53 56 55 54 57 63 64 59 50 42 38 37 33 27 24 23 21 19 17 14 14 17 18 18 17 17 17 17 16 15 15 13 13 11 8 8 9 8 6 4 1
41 44 48 50 50 51 55 62 64 59 51 46 42 39 34 26 21 21 21 20 18 17 17 19 20 19 18 18 18 17 17 18 18 17 16 13 9 9 11 10 8 5 3
39 43 47 49 50 53 56 60 63 60 54 48 41 35 31 26 21 20 21 21 20 19 18 19 20 20 19 18 18 17 16 17 17 17 17 15 12 10 11 10 9 7 5
38 43 50 53 54 56 60 63 65 62 56 49 40 33 30 27 24 22 22 21 19 18 17 17 19 20 19 19 19 17 14 14 14 14 13 14 13 10 9 8 7 6 5
41 46 54 59 61 62 64 67 66 62 57 51 44 38 33 30 27 23 22 21 19 16 16 17 18 18 17 17 18 16 12 12 13 11 9 8 8 8 8 6 4 3 3
48 53 62 68 70 70 70 69 65 61 57 52 48 42 35 31 28 25 23 21 19 18 18 18 19 17 15 15 16 14 10 9 11 10 8 5 5 6 6 4 2 2 3
56 62 72 78 80 79 77 71 66 62 57 53 49 43 35 30 28 26 24 22 21 21 20 19 18 16 14 14 14 12 8 7 8 8 7 4 3 3 3 2 0 1 2
60 68 79 84 85 84 80 73 68 64 59 55 52 46 38 31 27 26 24 24 24 24 23 20 16 14 12 11 11 10 8 7 7 6 4 2 1 1 1 1 0 1 2
64 73 83 86 87 85 80 74 70 66 63 59 56 51 43 34 28 25 25 25 26 25 24 22 18 15 11 7 6 7 9 10 8 5 3 1 0 0 0 0 0 0 1
72 78 84 86 87 85 81 76 73 68 66 64 60 54 46 37 31 27 27 27 26 25 25 24 22 18 12 5 2 4 9 12 11 7 3 1 0 0 0 0 0 0 0
78 81 83 84 85 83 81 78 73 69 67 66 63 57 48 41 36 32 30 29 27 26 27 27 26 22 13 4 1 3 7 11 11 7 4 2 1 1 0 0 0 0 0
77 79 79 80 82 83 82 78 73 68 67 66 63 57 51 45 39 35 33 31 29 28 28 28 27 22 13 5 0 2 7 9 8 5 3 2 2 2 1 0 1 1 0
75 75 75 78 82 83 83 79 74 69 67 65 60 55 50 43 38 35 33 30 29 28 29 28 23 19 13 5 1 2 5 6 5 3 1 1 1 1 1 0 1 2 1
76 75 76 80 83 84 82 80 75 70 67 62 57 52 47 40 36 34 32 30 29 29 30 27 22 18 13 6 1 1 2 3 2 1 1 0 0 0 0 0 1 1 1
76 76 78 81 83 83 81 78 74 70 66 59 53 49 45 39 34 33 32 30 28 28 28 25 20 16 12 7 2 0 1 1 0 0 1 0 0 0 0 0 0 0 0
73 74 76 78 79 79 77 74 70 67 62 56 52 48 44 39 35 32 29 27 26 25 24 22 17 14 13 9 3 0 0 0 0 0 0 0 0 0 0 0 0 0 0
69 70 71 72 73 73 71 67 65 64 59 54 50 47 42 39 36 31 26 25 24 22 20 17 14 12 13 10 4 0 0 0 0 0 0 0 0 0 0 0 0 0 0
66 67 67 65 64 65 63 60 60 60 56 50 45 42 38 34 32 28 23 20 18 15 13 11 10 9 9 7 3 0 0 0 0 0 0 0 0 0 0 0 0 0 0
67 67 64 59 57 58 58 56 57 57 53 46 41 38 35 31 27 25 20 14 12 9 6 6 6 6 6 4 2 0 0 0 0 0 0 0 0 0 0 0 0 0 0

GEFSMW_con_probscp_186.txt.gz
Probability
32 35 39 40 38 36 35 32 27 21 17 14 8 4 3 3 3 1 1 2 5 5 4 2 2 2 2 1 0 0 0 0 0 0 0 0 0 0 0 0 0 0 0
33 36 40 42 41 39 35 32 26 21 17 13 9 6 4 3 2 1 1 3 5 5 4 2 1 1 1 1 0 0 0 0 0 0 0 0 0 0 0 0 0 0 0
35 38 42 45 45 42 37 31 25 20 17 14 11 9 7 4 3 1 1 3 4 4 3 2 0 0 0 0 0 0 0 0 0 0 0 0 0 0 0 0 0 0 0
36 38 41 45 47 44 39 32 25 20 18 16 14 13 10 7 4 3 2 3 3 3 2 1 0 0 0 0 0 0 0 0 0 0 0 0 0 0 0 0 0 0 0
37 37 40 44 46 45 41 36 29 23 20 18 17 15 13 10 8 5 3 3 3 3 1 1 0 0 0 0 0 1 1 1 1 1 1 1 1 1 1 1 0 0 0
39 40 43 46 46 45 43 40 34 26 22 20 18 15 13 11 9 6 5 4 4 2 1 0 0 0 1 1 1 2 2 2 2 2 2 2 2 2 2 2 1 0 0
42 44 48 48 47 46 45 42 36 29 24 21 17 14 12 10 7 6 5 5 4 2 0 0 1 1 2 3 4 4 3 3 4 3 3 3 3 3 3 2 1 0 0
42 44 48 48 46 44 43 39 33 27 24 21 18 14 12 9 7 5 5 5 4 3 2 2 2 3 3 4 5 5 4 4 4 4 3 3 2 2 1 1 0 0 0
38 40 42 43 42 40 39 35 30 25 22 19 18 16 14 11 8 6 5 5 4 4 4 4 3 3 4 5 4 4 4 4 4 5 3 2 1 1 0 0 0 0 0
33 34 34 35 36 35 34 32 28 25 23 20 17 16 14 12 9 6 5 4 4 3 4 4 4 3 4 5 4 3 3 4 4 4 3 2 1 0 0 0 0 0 0
31 32 31 31 33 33 31 29 27 26 25 22 18 14 12 10 7 5 4 3 3 2 3 4 4 4 3 4 4 2 2 2 2 2 1 1 1 0 0 0 0 0 0
32 34 34 34 37 37 33 30 30 29 27 22 17 13 10 8 6 5 4 4 3 3 4 4 4 5 4 3 4 3 2 1 1 0 0 0 0 0 0 0 0 0 0
36 39 41 41 43 44 41 38 37 36 31 24 17 13 10 8 6 6 5 5 5 6 5 4 4 5 4 3 4 4 2 1 0 0 0 0 0 0 0 0 0 0 0
42 46 47 46 48 50 48 45 42 39 34 27 20 15 11 9 7 6 5 5 6 6 6 6 6 6 6 5 4 3 2 1 0 0 0 0 0 0 0 0 0 0 0
46 50 51 51 53 54 51 46 42 39 35 30 25 18 14 11 10 8 6 5 5 5 6 7 7 8 8 6 5 4 3 2 0 0 0 0 0 0 0 0 0 0 0
48 53 55 56 57 57 54 49 44 40 37 34 28 21 17 15 12 9 7 7 6 6 8 9 9 9 8 5 3 3 4 3 1 0 0 0 0 0 0 0 0 0 0
51 55 58 60 60 58 57 53 48 43 40 36 30 23 18 15 12 9 7 8 8 9 10 10 9 8 7 4 1 2 3 3 1 0 0 0 0 0 0 0 0 0 0
51 54 57 59 60 59 56 54 52 48 43 39 32 25 18 14 10 8 7 7 8 10 9 9 8 7 5 2 1 0 1 1 0 0 0 0 0 0 0 0 0 0 0
47 49 52 56 60 59 56 53 52 49 45 41 35 27 20 15 11 8 7 8 9 9 7 6 6 4 2 1 0 0 0 0 0 0 0 0 0 0 0 0 0 0 0
46 46 50 55 59 59 55 52 49 46 44 40 34 29 24 19 14 10 9 10 10 9 7 6 5 3 1 0 0 0 0 0 0 0 0 0 0 0 0 0 0 0 0
49 49 50 52 55 56 55 51 47 43 40 37 33 29 25 20 15 12 11 11 11 9 8 6 4 3 2 1 0 0 0 0 0 0 0 0 0 0 0 0 0 0 0
49 50 51 49 49 51 52 51 46 41 38 35 30 25 21 17 13 11 11 11 10 10 8 6 4 4 3 2 1 0 0 0 0 0 0 0 0 0 0 0 0 0 0
45 47 48 46 45 46 48 48 44 40 36 32 27 22 18 15 12 11 11 11 10 10 8 7 6 5 4 3 2 1 0 0 0 0 0 0 0 0 0 0 0 0 0
41 43 44 43 42 43 45 45 42 38 34 30 25 21 17 15 13 12 11 11 10 10 9 8 9 8 5 4 3 1 0 0 0 0 0 0 0 0 0 0 0 0 0
35 36 37 37 37 38 39 38 35 32 29 27 25 20 16 14 13 12 11 10 9 8 7 7 8 8 6 3 2 1 0 0 0 0 0 0 0 0 0 0 0 0 0
30 30 31 32 32 32 32 30 28 28 26 25 24 19 15 13 13 12 12 9 6 5 4 4 6 7 5 2 1 1 0 0 0 0 0 0 0 0 0 0 0 0 0

GEFSMW_con_probscp_192.txt.gz
Probability
5 7 9 11 12 12 13 15 18 19 16 14 11 8 5 4 3 2 1 1 1 1 1 1 1 0 0 0 0 0 0 0 0 0 0 0 0 0 0 1 0 0 0
6 8 11 13 14 14 13 13 15 16 16 14 12 8 6 4 3 3 2 2 2 2 1 1 0 0 0 0 0 0 0 0 0 0 0 0 0 0 0 1 0 0 1
7 10 13 14 15 15 14 12 12 12 14 14 12 10 8 7 6 4 3 3 3 3 2 1 0 0 0 0 0 0 0 0 0 0 0 0 0 0 0 0 0 0 1
11 12 13 14 15 15 14 12 9 10 11 11 11 11 11 11 8 5 3 3 3 3 2 1 1 1 1 0 0 0 0 0 0 0 1 1 1 0 0 0 0 0 1
12 13 14 15 15 15 14 12 9 9 11 11 10 11 12 11 8 4 2 1 2 3 2 1 1 2 1 0 0 0 0 0 0 1 2 2 2 1 1 0 0 0 0
12 14 15 17 16 15 16 14 11 10 11 11 9 9 10 9 6 3 1 0 1 1 1 1 1 1 1 0 1 0 0 0 1 2 3 3 3 3 2 1 0 0 0
11 14 17 17 17 18 19 18 14 12 12 10 8 8 8 7 5 4 2 1 1 0 0 0 0 0 0 0 0 0 0 1 2 3 3 3 3 4 3 2 1 0 0
12 14 16 18 19 21 22 21 18 14 13 10 8 8 8 6 5 4 3 3 2 1 0 0 1 0 0 0 0 0 0 1 3 3 3 3 3 4 4 2 1 0 0
13 14 16 18 20 22 23 23 22 19 14 10 8 8 8 6 4 4 4 4 4 3 1 1 2 1 1 0 0 0 1 2 2 2 2 2 2 3 3 2 1 0 0
14 16 19 21 21 22 23 24 24 21 16 11 8 6 6 5 4 4 5 5 4 3 2 2 2 3 2 1 0 1 2 2 1 1 2 1 2 3 3 1 0 0 0
15 19 24 25 23 21 21 22 22 20 15 12 9 6 5 5 6 6 6 4 3 3 3 3 3 4 4 2 1 2 2 1 1 2 2 2 3 4 3 1 0 0 0
16 21 25 27 24 22 21 22 21 18 15 13 10 7 6 7 8 7 6 5 4 4 4 4 4 4 4 3 2 3 4 3 2 3 3 3 3 4 3 1 0 0 0
21 24 27 29 28 25 24 24 23 19 17 15 12 9 8 9 9 8 7 6 6 6 5 5 4 4 3 3 3 4 5 5 4 3 3 3 3 3 2 1 0 0 0
26 28 30 31 30 26 25 27 26 23 21 17 14 12 11 10 9 8 7 6 6 6 6 4 3 3 3 3 4 4 4 5 4 3 3 3 3 3 2 1 0 0 0
24 27 31 32 30 28 28 30 30 29 26 21 19 17 14 11 9 8 7 6 6 6 5 4 3 3 3 4 4 4 4 4 4 3 3 2 2 3 2 1 0 0 0
19 22 26 28 30 31 33 35 34 33 30 27 25 22 17 12 10 8 7 7 7 6 4 3 3 3 3 3 3 3 4 5 5 4 3 1 1 1 1 0 0 0 0
17 18 20 22 26 30 35 37 37 35 34 32 28 25 21 15 11 9 8 8 7 5 3 3 3 3 3 3 1 2 3 4 5 5 4 2 1 0 0 0 0 0 0
16 16 18 20 23 29 34 38 38 37 35 32 28 25 24 20 14 11 10 10 8 5 3 3 3 3 3 2 1 1 2 3 4 5 4 3 1 0 0 0 0 0 0
17 18 22 25 28 32 37 40 40 37 35 32 27 24 25 25 19 14 13 11 9 7 5 3 3 3 3 2 1 1 2 3 3 2 3 2 1 0 0 0 0 0 0
19 22 27 32 35 37 40 41 40 37 34 31 27 23 25 26 21 16 14 11 9 8 6 4 3 3 3 2 1 1 2 3 2 1 1 1 0 0 0 0 0 0 0
20 24 31 36 39 41 41 41 39 36 32 30 27 23 22 22 17 13 11 8 7 7 7 4 3 3 2 2 1 1 2 2 1 0 0 0 0 0 0 0 0 0 0
22 26 32 36 39 41 41 40 37 33 31 30 27 21 18 16 12 8 6 5 4 5 5 5 3 2 1 1 0 0 1 1 0 0 0 0 0 0 0 0 0 0 0
27 30 33 34 35 38 39 37 35 33 32 30 26 19 15 12 9 6 5 5 4 4 4 4 4 3 3 2 0 0 0 0 0 0 0 0 0 0 0 0 0 0 0
28 31 33 32 32 34 35 34 33 33 31 29 24 19 16 12 9 7 7 7 7 5 5 5 5 5 6 5 2 1 1 0 0 0 0 0 0 0 0 0 0 0 0
25 28 31 30 30 30 31 30 30 31 30 28 24 19 16 12 8 7 7 7 7 6 6 6 7 7 8 7 4 2 1 0 0 0 0 0 0 0 0 0 0 0 0
23 26 28 27 27 27 28 27 28 29 30 27 23 18 14 11 7 6 6 6 5 5 5 6 7 8 8 6 3 1 1 0 0 0 0 0 0 0 0 0 0 0 0

GEFSMW_con_probscp_198.txt.gz
Probability
8 8 10 11 13 19 25 25 25 27 26 19 11 7 5 4 3 1 1 2 2 2 3 3 3 2 1 1 1 1 0 1 2 1 0 0 0 0 0 0 0 0 1
9 12 14 13 14 21 26 27 26 26 25 18 10 7 7 6 4 2 1 2 3 3 3 3 4 3 3 2 2 2 1 1 2 2 1 1 0 0 0 0 1 1 2
10 14 17 16 15 21 26 27 27 27 24 17 11 9 10 9 7 4 3 4 4 4 4 4 5 6 5 4 4 4 3 2 2 3 3 2 1 1 1 1 1 2 2
8 13 17 17 15 19 25 29 31 30 26 19 14 12 12 10 8 6 6 7 6 6 6 6 6 6 6 5 5 5 4 3 2 2 3 3 2 2 2 1 1 1 1
9 12 16 17 17 18 24 31 35 33 27 21 17 14 12 9 8 8 8 8 8 8 7 5 5 5 6 5 5 4 4 4 3 2 3 3 4 5 5 3 1 0 0
14 16 19 20 20 21 25 33 39 38 31 23 19 16 13 10 8 8 8 8 8 8 7 6 6 6 6 7 6 5 4 3 2 2 4 4 5 6 6 5 3 1 1
18 21 24 24 23 24 29 37 44 44 37 28 21 16 13 12 10 8 7 7 7 7 7 8 8 8 7 7 7 6 4 2 2 3 5 6 6 7 7 7 5 3 2
20 22 25 25 24 25 30 37 46 46 39 31 25 19 15 13 12 10 7 6 5 5 6 8 9 9 8 8 8 8 6 4 2 3 5 6 7 8 9 8 7 5 4
17 18 20 23 24 25 27 32 41 42 35 30 26 22 18 15 13 11 9 7 6 5 5 7 8 7 7 8 9 9 8 6 5 5 5 6 7 8 8 7 6 5 4
13 15 19 23 26 27 26 29 35 36 31 27 26 24 22 19 15 14 12 10 9 7 7 8 9 8 9 11 11 10 8 8 8 8 7 7 8 8 8 5 4 4 4
15 19 24 27 31 32 32 34 35 34 31 29 28 27 26 24 21 18 15 14 13 10 9 10 11 12 13 14 13 10 10 9 8 7 7 6 7 8 8 7 5 4 4
22 25 29 33 37 39 40 40 38 37 35 33 34 34 32 29 25 21 18 16 15 13 11 12 14 15 16 16 14 13 12 11 8 7 7 7 7 8 9 9 8 7 6
29 32 36 39 42 46 47 46 41 38 36 36 37 38 37 34 28 23 21 20 18 16 14 14 14 15 16 17 15 14 15 14 12 11 11 10 8 7 7 8 9 8 8
32 38 42 44 47 50 52 51 45 40 38 39 39 39 39 37 32 27 25 24 22 19 17 16 15 13 14 15 15 15 16 16 15 14 13 11 8 7 6 7 7 8 8
33 39 44 46 49 53 55 54 51 47 46 46 44 42 39 37 35 32 29 27 25 23 22 20 16 12 10 12 13 14 15 14 14 13 11 9 7 5 5 5 5 7 7
32 37 42 45 50 53 54 54 53 54 53 52 51 47 43 41 40 35 30 28 27 27 26 24 19 14 11 9 9 11 12 12 10 8 8 7 6 5 3 2 2 4 5
33 37 40 46 52 53 51 52 55 58 59 57 55 52 48 45 43 37 30 27 27 27 27 25 22 18 13 9 6 6 8 9 8 6 5 6 6 5 4 2 2 2 2
34 38 41 47 53 52 50 51 57 61 63 62 59 55 50 46 44 39 33 29 29 28 25 24 23 20 14 8 4 3 4 7 8 7 5 5 5 4 4 3 2 1 1
32 37 43 48 52 53 53 54 56 60 64 64 62 59 54 49 45 41 37 35 33 31 27 23 21 18 13 7 2 2 4 7 8 8 6 4 4 2 2 2 1 1 0
32 36 43 49 52 53 55 56 55 57 59 62 62 60 57 52 47 44 41 38 36 33 29 21 17 15 12 6 2 2 6 8 9 9 7 5 3 1 0 1 1 1 0
36 37 43 48 51 54 56 55 54 53 53 55 57 55 53 50 48 46 43 38 34 31 26 18 13 11 9 6 2 2 4 7 9 9 9 6 2 0 0 0 1 1 1
41 40 44 49 50 52 53 53 52 51 49 49 49 47 46 46 47 47 43 36 31 27 22 17 13 11 8 5 3 1 2 4 7 10 9 6 2 0 0 0 1 1 0
42 42 45 48 49 48 48 49 49 49 48 46 44 43 43 44 45 43 39 33 28 25 21 17 15 13 9 6 4 2 1 1 4 7 7 4 1 0 0 0 0 0 0
36 39 42 43 44 43 43 45 46 46 46 45 43 41 39 39 39 36 32 28 25 23 20 18 16 14 10 7 5 4 3 2 2 4 4 2 1 1 1 1 0 0 0
28 31 34 35 36 38 40 42 44 45 44 43 41 37 33 31 31 29 25 21 20 18 16 16 14 11 9 6 5 4 4 4 3 3 2 2 2 3 3 2 1 0 0
25 27 30 30 32 35 39 41 43 44 43 42 38 33 29 26 25 25 20 16 15 13 12 12 12 10 7 5 4 4 4 3 4 4 3 3 3 4 4 3 2 1 0

GEFSMW_con_probscp_204.txt.gz
Probability
37 36 35 41 52 61 61 56 51 49 42 35 30 23 19 18 15 14 18 19 12 8 7 6 6 7 6 5 4 5 4 3 2 1 0 0 1 2 3 6 5 3 3
42 43 43 44 54 62 62 56 53 51 45 38 32 25 21 19 16 17 20 20 15 11 10 9 7 7 7 6 6 7 5 3 2 1 0 0 0 1 2 3 4 5 6
45 48 48 49 55 62 61 58 58 55 48 41 35 28 24 20 18 20 21 21 18 16 14 13 9 7 7 7 8 9 8 4 1 1 1 1 1 0 0 1 2 6 10
42 47 50 49 53 57 61 64 64 59 51 43 37 31 27 22 20 21 22 21 20 18 17 14 11 9 9 9 8 8 9 6 2 0 1 1 1 0 0 0 1 4 8
38 45 49 47 48 54 63 69 68 62 54 46 40 34 29 23 20 21 23 22 20 18 16 15 15 13 12 11 10 8 8 6 4 2 1 1 1 0 0 0 0 1 3
34 42 49 50 52 57 66 72 71 65 58 51 43 36 28 22 19 21 24 22 19 16 14 16 18 18 15 13 13 10 8 7 6 4 3 1 0 0 1 0 0 0 1
31 39 49 56 60 62 68 73 74 70 63 55 48 40 30 22 20 21 22 21 18 15 15 19 22 21 18 16 16 14 12 11 9 7 6 3 1 1 2 1 0 0 0
31 38 49 59 63 64 68 73 76 73 66 59 53 45 36 27 23 22 22 20 18 16 18 23 24 21 18 17 18 16 14 15 13 10 9 6 3 4 4 2 1 1 0
33 38 47 57 61 62 66 71 73 71 66 59 54 47 38 32 28 26 22 21 20 18 20 23 23 19 16 16 17 16 15 16 16 14 13 10 6 6 6 4 3 2 1
34 36 42 50 55 58 61 66 67 65 61 57 52 44 38 33 31 28 25 24 23 21 21 22 23 19 17 17 17 16 17 18 16 15 16 14 10 8 7 5 4 2 1
34 35 39 44 48 52 57 62 63 60 56 54 50 44 39 36 32 30 28 28 27 25 23 24 24 21 19 19 18 16 19 21 19 17 18 16 13 11 8 5 4 3 3
37 40 44 45 47 51 58 63 62 58 55 54 51 46 43 41 38 36 34 33 31 28 27 27 26 24 23 22 21 19 20 22 21 21 20 18 15 13 10 6 5 5 6
40 46 51 51 51 56 62 64 61 58 58 59 56 51 49 49 47 45 42 39 36 32 31 31 29 27 26 25 25 23 22 21 21 20 20 17 15 14 13 10 7 6 5
42 48 55 58 59 64 68 66 61 60 62 64 62 59 57 57 56 54 52 48 42 38 36 35 32 31 30 28 27 26 23 23 22 19 18 16 15 14 12 10 10 7 4
47 53 60 64 64 66 69 69 66 65 66 66 66 63 62 63 64 63 61 57 51 44 41 39 36 33 30 26 25 25 24 24 23 21 18 15 13 11 8 7 8 6 4
51 56 64 69 67 66 67 69 69 68 68 67 66 65 65 67 69 69 67 64 58 49 43 40 37 34 28 20 17 20 23 25 24 23 20 15 11 8 6 4 4 3 3
47 53 61 67 67 63 63 65 68 69 69 67 66 66 67 68 70 69 67 66 61 53 46 40 37 33 25 15 10 13 19 23 23 23 20 16 11 8 5 3 2 2 3
45 48 54 59 61 60 60 61 64 66 67 66 65 65 66 67 67 66 64 63 60 57 51 44 39 34 23 13 7 8 14 20 22 21 19 16 12 8 6 5 4 3 3
46 48 50 52 54 57 58 58 60 63 65 64 64 64 63 64 65 64 61 58 57 56 53 49 44 37 24 13 6 5 11 17 19 18 16 13 11 8 5 5 5 4 3
49 50 49 48 50 54 56 56 58 62 63 62 62 62 60 60 63 63 59 57 55 54 51 49 46 38 26 14 5 4 9 15 17 16 14 10 7 5 4 4 5 4 3
51 50 48 47 48 51 54 56 58 60 60 59 59 58 56 56 58 59 58 55 54 50 48 47 44 36 26 14 4 2 7 13 15 15 13 10 6 3 2 2 3 2 1
50 50 49 48 48 51 55 59 60 58 57 57 57 54 52 51 53 55 54 52 49 46 44 44 41 34 25 15 5 2 3 7 10 11 10 8 5 2 1 1 2 1 0
49 49 49 49 51 54 58 58 57 55 53 53 53 52 50 49 50 51 48 44 43 41 40 41 39 32 26 18 10 4 1 2 3 5 4 3 2 1 0 0 0 0 1
48 47 45 46 51 56 56 53 52 50 51 50 48 47 46 45 46 45 39 35 35 35 35 36 36 31 25 19 12 7 3 1 1 1 2 2 2 2 1 1 1 1 1
45 44 41 41 46 51 52 49 48 49 50 49 45 42 41 41 40 37 30 25 24 25 27 28 28 25 19 14 10 6 3 2 2 2 2 3 4 4 4 3 3 2 1
42 41 39 38 41 46 49 48 48 49 50 48 44 40 38 38 36 31 24 19 16 16 18 20 21 18 14 9 5 3 2 3 3 3 3 4 4 4 5 5 5 3 1

GEFSMW_con_probscp_210.txt.gz
Probability
6 8 12 17 20 18 14 12 14 16 16 14 10 7 5 4 4 4 3 1 0 0 0 1 1 0 0 0 0 0 0 0 0 0 0 0 0 0 0 0 0 0 0
8 10 15 18 22 22 19 16 17 19 19 17 13 8 5 3 3 4 4 2 1 1 1 2 2 1 1 0 0 0 0 0 0 0 0 0 0 0 0 0 0 0 0
11 15 19 21 23 26 26 23 23 23 23 20 16 12 7 4 3 4 5 4 3 3 4 4 4 3 1 0 0 0 0 0 0 0 0 0 0 0 0 0 0 0 0
16 18 21 23 24 27 29 29 27 25 24 22 19 15 10 5 3 4 5 5 4 5 5 5 4 3 1 0 0 0 0 0 0 0 0 0 0 0 0 0 0 0 0
20 20 22 24 25 26 29 32 30 27 26 25 23 19 15 9 5 4 4 4 4 6 7 7 5 2 0 0 0 0 0 0 0 0 0 0 0 0 0 0 0 0 0
22 22 24 27 28 29 31 33 32 30 29 27 24 21 18 12 8 5 5 5 6 7 8 8 6 3 1 0 0 0 0 0 0 0 0 0 0 0 0 0 0 0 0
23 24 27 30 31 34 38 37 34 32 30 27 23 19 16 14 10 8 7 7 7 7 8 8 6 4 2 1 1 1 1 0 0 0 0 0 0 0 0 0 0 0 0
25 27 30 32 32 35 41 39 33 30 27 25 20 14 12 11 11 10 9 9 8 7 7 6 4 3 1 1 3 4 3 2 1 0 0 0 0 0 0 0 0 0 0
28 28 29 29 29 31 35 36 31 26 24 22 17 12 8 8 9 9 9 8 7 7 6 4 3 2 1 2 4 5 4 3 2 1 1 1 1 1 1 1 1 1 0
26 26 26 25 25 26 30 34 32 27 23 20 16 11 7 6 7 8 7 7 7 7 5 4 4 4 4 4 5 6 5 4 4 3 3 3 2 2 2 2 2 2 1
23 24 25 25 25 26 30 34 35 31 26 23 19 15 11 8 8 8 6 7 8 7 5 4 5 6 6 7 8 9 9 7 6 6 5 4 3 3 3 3 3 3 3
22 23 26 28 28 29 32 34 35 33 29 26 24 22 18 15 13 11 10 10 10 9 7 6 5 5 7 9 11 12 12 10 9 7 5 4 3 3 3 3 3 3 3
23 25 28 29 28 28 31 33 33 31 29 27 25 24 22 20 18 16 13 12 11 10 9 8 6 6 8 10 13 14 13 12 10 8 5 4 3 3 3 3 3 3 3
25 28 32 31 27 25 28 30 31 30 28 25 23 22 21 21 19 18 14 12 11 11 12 11 10 10 10 11 14 16 15 13 12 9 7 5 4 3 3 3 3 3 3
28 31 35 34 30 27 28 29 29 28 26 23 21 22 22 21 22 20 16 12 10 12 14 13 13 13 12 12 14 18 17 13 11 10 9 8 6 4 3 3 3 3 3
29 31 33 33 31 30 31 31 28 26 25 24 23 24 24 25 27 26 21 14 11 13 15 15 15 13 12 11 12 15 15 11 10 10 11 11 8 6 4 3 3 3 3
27 28 28 28 28 28 30 31 28 26 27 27 27 28 29 29 31 32 28 21 17 15 15 15 15 13 11 9 7 8 9 9 9 11 12 11 9 7 5 4 3 3 3
24 24 24 25 25 24 26 30 30 29 30 31 32 33 34 33 36 38 36 30 25 21 17 15 14 13 9 5 3 3 5 8 9 10 11 11 9 6 5 5 4 3 3
22 22 22 22 22 23 26 30 32 34 35 35 36 36 36 36 38 41 39 34 30 26 22 18 16 14 10 4 1 1 3 5 6 8 8 9 7 4 3 5 6 5 3
26 25 23 23 24 26 29 31 33 36 37 37 37 36 35 34 37 38 37 34 31 28 25 22 20 16 11 6 1 1 2 2 3 3 4 4 3 2 1 3 5 4 3
32 31 29 27 27 29 31 32 33 34 35 35 34 33 32 31 32 34 33 33 30 27 25 23 20 17 13 7 2 1 2 1 1 1 2 2 1 0 0 1 2 2 2
33 32 31 29 28 29 30 30 30 31 30 30 28 28 29 29 30 29 29 29 28 27 26 23 20 17 13 8 3 1 1 1 0 0 1 1 1 0 0 0 0 1 1
30 29 28 27 26 27 28 28 27 26 25 24 23 23 25 27 27 26 26 26 26 26 25 24 21 18 14 9 5 2 0 0 0 0 0 0 0 0 0 0 0 0 0
26 26 24 24 24 25 26 25 23 21 21 20 19 20 22 25 25 23 21 22 23 23 22 22 20 18 15 11 7 3 1 1 0 0 0 0 0 0 0 0 0 0 0
20 21 21 21 21 22 21 21 19 18 19 19 19 19 21 23 22 19 17 16 17 17 17 16 16 15 13 10 7 4 3 2 1 0 0 0 1 1 1 0 0 0 0
16 18 20 20 20 19 17 17 17 17 17 17 18 20 22 21 20 17 13 12 13 13 12 11 11 12 11 8 5 4 3 3 2 1 0 1 2 2 2 1 0 0 0

GEFSMW_con_probscp_216.txt.gz
Probability
1 2 2 1 1 1 2 3 5 7 7 6 5 4 2 0 0 0 0 0 0 0 0 0 0 0 0 0 0 0 0 0 0 0 0 0 0 0 0 0 0 0 0
0 1 1 0 0 1 3 4 5 7 8 7 6 5 3 1 0 0 0 0 0 0 0 0 0 0 0 0 0 0 0 0 0 0 0 0 0 0 0 0 0 0 0
0 0 0 0 1 3 5 5 5 7 9 9 8 7 6 4 2 1 1 0 0 0 1 1 0 0 0 0 0 0 0 0 0 0 0 0 0 0 0 0 0 0 0
1 1 1 0 2 4 6 6 6 6 8 9 10 10 10 7 4 3 2 0 0 1 2 1 0 0 0 0 0 0 0 0 0 0 0 0 0 0 0 0 0 0 0
3 3 2 1 2 3 4 5 5 6 6 8 9 11 10 7 4 2 1 0 0 1 2 1 0 0 0 0 0 0 0 0 0 0 0 0 0 0 0 0 0 0 0
4 4 5 5 4 3 4 4 5 5 6 7 9 9 7 5 3 2 1 0 1 3 2 2 1 1 1 1 0 0 0 0 0 0 0 0 0 0 0 0 0 0 0
5 8 12 13 10 7 7 8 7 6 7 9 10 8 5 3 3 3 2 2 3 3 2 2 3 3 3 2 1 0 0 0 1 1 1 0 1 1 1 0 0 0 0
8 11 17 19 16 13 11 12 12 10 9 11 11 8 5 4 4 4 5 6 4 2 1 2 2 3 5 4 2 1 0 1 2 3 3 1 1 2 2 1 1 0 0
10 12 16 18 18 17 15 14 14 13 11 10 10 7 5 6 6 5 5 5 4 2 1 2 3 3 5 5 3 2 1 2 4 4 4 3 3 3 3 3 2 1 0
9 10 13 15 17 19 18 16 15 14 11 10 10 8 8 9 7 4 3 2 2 2 2 3 4 5 5 4 4 3 2 2 3 3 2 3 3 3 3 3 3 2 1
8 8 11 15 18 20 21 20 18 16 13 13 14 13 12 9 6 3 3 3 3 3 4 4 5 6 6 6 5 4 4 3 2 3 3 2 3 3 3 3 3 3 3
7 8 11 15 18 20 21 22 22 20 18 17 18 18 14 9 6 5 4 5 6 7 7 7 7 8 8 8 7 5 5 5 6 7 6 6 5 5 4 3 3 3 3
8 9 11 12 13 15 17 19 20 21 21 21 21 20 15 9 7 7 7 7 8 9 9 9 10 9 8 8 7 6 6 9 12 12 12 11 10 9 6 4 4 4 4
12 12 10 10 10 11 13 15 16 18 20 22 21 20 16 12 10 10 11 11 10 8 8 9 9 8 7 7 6 6 7 10 13 14 14 14 13 12 9 6 6 6 6
16 14 13 13 12 12 13 14 14 14 17 20 20 18 15 12 11 13 16 16 13 10 8 9 9 8 8 7 6 7 9 11 11 12 13 12 12 11 9 7 7 7 6
15 15 15 15 15 15 15 15 15 15 16 18 19 17 14 11 11 13 16 16 14 12 11 11 12 11 10 8 5 6 9 10 10 10 10 9 9 9 7 6 6 5 5
15 15 15 15 16 17 19 18 18 18 18 18 20 19 15 12 11 11 11 11 12 12 13 13 13 13 12 9 5 4 7 9 10 9 8 7 7 7 7 6 5 4 3
16 16 16 16 17 18 20 20 20 21 22 21 22 19 15 13 12 12 11 12 13 13 12 11 11 11 11 8 4 3 5 8 10 9 9 7 6 6 6 7 6 5 4
17 16 17 19 19 19 19 19 18 19 22 23 22 19 16 14 15 14 15 16 16 15 13 10 8 8 8 6 3 3 6 9 9 9 9 7 6 5 5 6 7 6 6
17 17 18 20 20 20 19 18 15 14 17 21 21 20 19 19 18 17 18 18 17 17 15 11 8 7 7 5 2 2 5 8 9 9 8 6 4 3 3 4 5 6 6
15 18 19 18 17 18 19 17 14 12 13 16 19 20 22 22 21 19 19 18 16 16 15 13 10 8 7 4 1 1 3 6 8 8 7 5 2 1 1 2 3 4 5
12 15 18 17 14 13 15 16 15 13 12 14 17 19 21 22 22 21 19 17 16 15 15 14 13 10 7 4 2 1 1 3 6 7 6 3 2 0 0 1 1 1 2
11 12 14 15 14 12 13 15 15 14 14 16 17 19 20 20 20 21 19 18 17 16 15 16 16 13 10 7 5 3 1 2 3 4 3 1 1 0 0 0 0 0 0
10 11 12 13 13 13 13 14 15 15 17 18 18 19 19 18 18 19 19 17 16 15 15 17 18 16 13 11 9 6 3 2 2 2 2 1 1 0 0 0 0 0 0
8 10 11 11 10 10 11 13 13 14 16 17 17 16 15 15 16 17 17 15 14 13 14 16 17 15 13 10 8 6 4 3 2 2 2 2 2 1 1 1 1 0 0
8 9 11 10 8 7 9 11 12 12 14 15 14 12 12 14 15 16 15 13 12 11 11 14 14 12 10 6 3 3 4 4 3 3 3 3 3 2 2 2 2 1 0

GEFSMW_con_probscp_222.txt.gz
Probability
5 6 6 5 3 2 5 7 9 12 13 14 14 13 11 9 7 5 4 3 2 1 2 3 3 3 3 3 2 1 0 0 0 1 1 0 0 0 0 0 0 0 0
5 6 6 5 3 4 6 8 9 11 12 12 12 10 9 9 8 6 5 4 3 3 2 2 2 2 3 3 4 3 2 1 1 2 2 1 0 0 0 0 0 0 0
4 6 6 4 3 4 6 8 10 11 11 10 9 8 8 9 8 6 4 4 5 4 2 3 3 2 3 5 7 6 5 4 3 3 3 1 0 0 0 0 0 0 0
4 6 7 5 3 3 5 7 10 13 13 10 8 8 8 9 9 6 3 3 3 3 3 3 4 4 5 7 9 8 8 7 5 4 5 3 2 1 0 0 0 0 0
6 7 8 7 5 4 4 6 11 16 17 12 9 10 10 9 9 7 4 3 2 3 4 4 6 6 7 9 10 9 8 7 5 5 6 5 5 3 1 1 0 0 0
8 9 9 8 7 6 6 9 14 18 19 15 11 10 11 12 12 10 8 6 5 6 8 9 11 11 10 11 11 11 9 8 7 7 7 8 6 4 3 2 1 0 0
10 11 11 11 12 11 10 14 21 22 20 16 13 11 12 15 14 12 10 9 8 9 12 14 15 15 13 12 13 14 12 10 9 8 9 9 7 5 5 4 1 0 0
12 14 14 16 19 19 18 21 27 27 22 18 16 13 13 13 13 11 9 8 8 8 10 11 12 14 14 14 17 18 15 12 10 8 10 11 9 8 7 5 3 1 1
18 18 17 19 23 25 24 26 29 29 25 22 20 17 13 11 10 10 9 8 8 7 6 6 8 12 15 17 20 20 17 14 11 10 13 14 14 12 10 7 7 5 3
25 24 21 22 25 28 29 30 30 29 28 26 24 20 17 15 14 13 12 11 9 8 7 7 10 12 15 17 19 19 18 16 15 15 16 17 17 16 14 12 13 11 9
32 30 28 28 30 32 34 35 33 30 29 29 27 25 23 22 20 18 16 15 12 10 10 11 11 12 13 15 16 17 18 19 18 17 18 19 19 18 18 18 17 15 15
36 36 35 36 36 37 39 39 36 33 30 29 29 29 29 27 24 21 20 19 16 13 12 12 12 13 14 16 18 19 22 25 23 20 21 21 20 21 23 23 19 17 17
38 38 38 38 40 42 42 41 38 34 30 28 29 31 31 29 25 22 22 23 20 16 12 10 11 13 15 17 19 22 27 30 29 26 26 26 24 24 26 26 23 21 19
41 38 37 38 41 44 43 41 39 34 30 28 28 29 29 28 25 24 24 24 22 18 13 11 11 12 14 16 19 23 27 31 33 32 32 32 28 25 26 27 26 25 24
41 38 37 40 42 42 42 41 38 36 33 31 29 28 28 26 24 24 25 25 23 20 18 18 16 14 14 15 18 21 24 29 31 31 32 32 28 22 20 21 22 24 24
38 37 38 41 43 41 40 40 40 39 39 37 33 31 30 28 27 26 26 24 22 20 21 23 23 20 16 13 13 16 21 25 25 25 26 27 25 19 15 12 12 15 18
37 34 35 39 41 39 40 41 41 42 43 40 38 36 34 32 30 30 28 24 21 20 22 24 26 24 17 10 8 10 16 20 20 21 22 22 23 22 18 13 9 9 11
37 33 31 34 37 37 39 41 42 44 45 43 42 40 37 34 32 32 30 26 22 21 22 25 28 26 18 9 6 7 12 16 18 19 19 19 20 22 22 20 16 14 14
39 34 31 32 35 35 37 39 40 43 44 44 42 41 40 37 34 32 32 29 25 24 25 27 28 26 18 9 5 6 11 17 20 19 16 15 15 16 18 20 21 20 20
40 35 32 34 36 35 34 34 35 37 38 39 38 39 41 39 36 34 33 32 31 30 29 28 26 23 18 11 6 6 12 19 22 20 15 11 10 9 11 15 19 20 21
37 35 33 34 36 35 32 31 31 31 31 31 32 35 37 36 34 34 34 33 33 32 30 28 25 22 17 12 7 7 11 18 21 20 15 11 7 4 4 9 13 15 16
31 30 32 33 33 33 33 32 31 30 28 26 26 28 29 28 28 30 31 31 30 28 27 26 24 22 18 13 8 6 7 12 17 17 15 12 6 2 1 3 6 7 8
23 25 29 30 31 32 32 31 29 27 27 26 23 21 21 21 23 26 27 27 26 24 24 24 23 20 18 15 11 7 4 5 10 13 12 9 5 2 1 1 2 3 5
18 21 24 27 28 29 27 25 24 23 26 27 24 21 19 18 20 22 22 22 23 23 23 22 19 17 16 15 14 12 8 5 6 9 8 6 4 3 3 2 2 3 6
15 18 20 22 24 23 21 20 21 21 24 27 26 23 19 17 17 17 17 17 19 20 20 18 15 13 12 13 14 14 12 7 5 6 7 7 7 7 6 5 4 4 5
13 16 18 20 20 18 18 19 20 22 24 25 25 23 20 17 16 14 14 14 15 16 16 14 11 10 10 10 11 11 10 6 3 5 9 10 10 9 8 7 5 4 5

GEFSMW_con_probscp_228.txt.gz
Probability
13 12 13 16 22 31 33 28 23 19 16 14 12 10 8 7 8 11 17 22 21 17 14 9 6 4 4 7 7 5 4 3 2 1 0 1 2 3 2 1 0 0 0
21 21 20 19 23 31 34 31 26 21 17 15 14 13 9 9 11 14 19 22 21 18 14 11 9 7 8 9 8 7 5 4 3 2 1 1 1 2 2 2 1 0 1
30 30 25 21 23 29 33 32 31 27 20 18 17 15 11 10 13 16 21 23 22 19 16 15 13 12 12 11 10 10 7 4 4 4 3 2 2 2 3 2 1 1 2
35 34 28 22 22 26 30 34 37 34 27 22 20 16 12 10 13 17 21 23 23 22 20 18 17 16 14 12 11 11 9 5 4 4 4 3 2 3 3 1 1 2 2
38 38 34 27 23 23 27 35 43 42 33 25 23 19 14 12 16 21 23 22 23 24 23 21 20 20 17 15 13 12 12 9 7 5 5 4 4 3 3 1 1 1 1
40 41 41 38 31 26 30 40 48 47 39 31 28 25 20 18 22 26 25 21 20 23 25 23 23 24 22 20 18 17 16 14 11 9 8 6 5 4 3 2 1 1 0
40 42 47 50 44 39 43 51 55 52 44 38 36 34 30 26 25 26 24 18 17 22 25 25 25 26 25 25 24 22 20 17 16 14 13 11 7 5 4 3 2 1 0
38 42 49 54 54 54 57 61 60 56 49 44 42 41 37 30 24 24 22 17 16 20 24 25 25 26 25 25 25 23 20 19 18 18 18 16 11 7 6 5 4 2 1
39 42 46 49 53 58 62 64 62 57 51 47 45 43 39 31 24 22 20 17 16 18 21 23 24 25 24 23 24 21 18 17 18 19 20 19 15 13 11 8 6 5 5
43 45 47 47 48 53 60 62 62 58 52 48 45 43 39 33 27 23 19 18 19 19 20 22 23 24 23 22 21 19 17 17 18 19 20 19 19 19 17 13 11 11 10
48 51 52 50 49 51 57 62 63 60 55 50 46 44 40 36 32 29 26 26 26 25 24 24 24 23 22 20 20 18 18 18 17 17 19 19 20 21 20 19 19 18 17
54 57 58 57 55 54 58 61 61 60 58 54 49 46 43 41 39 36 36 37 37 33 28 24 23 21 19 19 19 19 19 18 17 18 19 20 21 22 21 22 25 25 24
61 64 66 66 63 60 60 60 58 57 57 54 51 48 46 45 43 41 40 43 42 36 28 22 20 18 16 16 16 16 17 18 18 19 20 21 23 24 23 23 26 27 24
65 68 73 74 69 66 64 61 58 56 55 53 51 50 50 48 45 43 43 44 43 37 29 23 19 17 15 14 12 12 14 17 18 20 22 23 24 25 24 22 23 23 22
62 65 71 72 70 68 67 65 63 61 59 58 56 55 53 50 46 44 44 44 42 38 34 28 23 20 16 14 12 12 14 16 19 22 25 25 23 21 19 18 18 20 22
58 61 63 63 63 64 64 64 64 65 64 63 61 59 56 52 47 43 41 41 41 39 36 32 29 25 19 13 13 15 16 18 20 22 24 23 19 17 16 15 13 15 19
57 57 56 55 55 57 58 57 59 61 62 61 60 58 55 52 49 45 40 37 39 40 38 35 32 28 19 13 11 14 17 20 21 21 22 21 18 17 19 16 12 12 13
54 52 49 48 49 50 51 52 53 55 56 56 57 56 54 52 50 47 43 39 39 42 42 39 35 28 18 11 9 12 17 21 21 22 24 25 22 17 18 18 15 14 14
50 47 44 43 44 44 46 49 51 52 52 52 54 55 54 53 50 49 47 44 41 41 41 38 35 28 19 12 8 10 18 24 25 25 25 27 24 16 13 15 17 18 18
45 43 41 41 41 40 44 47 49 48 48 47 48 51 52 51 49 48 47 45 41 39 36 34 32 28 22 15 9 10 17 25 28 28 26 23 19 14 9 11 16 18 17
40 41 42 42 40 39 41 44 43 42 41 41 40 41 42 42 43 44 42 40 38 36 33 33 32 29 23 15 9 8 14 21 26 28 25 18 13 8 4 7 13 14 14
37 40 43 43 39 36 35 37 37 37 37 37 35 32 32 34 37 39 37 36 34 32 31 31 32 30 24 15 8 5 7 13 18 22 20 14 8 3 1 3 7 9 9
37 38 39 39 35 31 30 31 32 33 34 33 31 29 28 30 32 34 34 33 31 28 27 28 28 28 24 17 10 5 3 5 9 12 12 8 4 2 1 2 3 5 7
34 32 30 30 29 28 28 29 30 31 30 29 27 27 26 26 27 29 29 29 28 25 23 23 24 24 23 18 13 8 5 3 4 6 7 5 3 3 5 6 5 6 8
27 23 21 22 25 27 29 29 29 28 27 26 23 23 22 20 21 23 23 21 20 18 17 17 20 21 21 17 13 11 8 6 5 6 7 8 7 8 9 11 10 9 9
22 18 16 18 22 26 28 28 28 26 25 24 21 19 19 18 18 19 18 15 12 11 11 13 16 19 18 15 12 11 10 8 7 7 10 12 12 11 12 13 12 10 10

GEFSMW_con_probscp_234.txt.gz
Probability
7 6 6 6 9 10 9 10 10 8 6 5 3 2 1 1 0 0 0 0 0 0 0 0 0 0 0 0 0 0 0 0 0 0 0 0 0 0 0 0 0 0 0
6 6 6 8 12 13 12 11 12 10 7 5 3 1 1 1 0 0 0 0 0 1 1 1 1 0 1 1 1 0 1 1 0 0 0 0 0 0 0 0 0 0 0
6 6 7 13 18 19 16 13 12 12 10 8 5 3 2 1 1 0 0 0 1 2 3 3 2 2 2 3 3 2 2 2 1 0 0 0 0 0 0 0 0 0 0
11 10 12 18 24 23 19 14 12 12 13 12 9 7 5 3 2 1 1 0 1 4 6 6 4 3 3 5 5 5 4 3 2 1 0 0 0 0 0 0 0 0 0
17 16 18 22 25 23 19 16 13 13 14 15 13 10 8 6 5 4 2 2 3 5 8 8 6 4 4 5 6 7 5 3 2 1 0 0 0 0 0 0 0 0 0
20 21 23 24 25 23 21 18 17 17 17 17 16 13 10 8 7 6 5 4 4 5 7 7 6 6 6 6 6 6 4 2 1 0 0 0 0 0 0 0 0 0 0
21 23 25 25 26 26 24 22 20 20 21 21 19 15 11 10 9 7 6 6 5 5 6 7 7 7 6 6 6 5 4 2 1 1 1 1 1 0 0 0 0 0 0
25 26 25 25 27 26 25 23 23 23 23 22 20 17 13 11 10 8 8 8 6 5 5 7 8 7 7 6 6 4 3 3 2 2 2 2 2 1 1 0 0 0 0
31 30 27 28 29 29 27 27 27 27 24 22 20 17 15 13 12 11 11 10 7 5 5 7 8 8 7 6 4 2 2 3 3 3 3 2 2 2 1 0 0 0 0
34 33 31 32 35 36 33 31 31 29 26 23 21 17 15 15 15 14 13 11 9 6 6 6 7 7 6 4 2 1 1 1 2 2 1 1 1 1 1 0 0 0 0
32 33 34 36 40 42 38 34 32 31 29 26 23 20 17 17 17 16 15 14 11 9 7 6 6 6 5 2 1 0 0 0 1 1 0 0 0 0 0 0 1 1 1
30 32 35 38 42 43 41 36 32 31 32 29 27 25 23 21 19 17 17 16 14 11 9 7 5 4 3 2 1 1 0 1 1 1 0 0 0 0 0 1 2 2 2
33 34 37 40 41 40 39 36 33 32 33 32 31 30 29 26 20 17 17 17 16 13 11 8 5 4 4 3 2 2 2 2 2 2 1 1 1 1 1 3 3 4 4
36 36 36 36 37 35 34 35 35 34 33 33 35 35 34 30 23 18 17 18 17 14 11 9 6 4 4 4 3 2 2 3 3 3 3 3 3 3 4 5 5 6 7
34 34 32 31 32 31 30 32 34 35 34 34 36 38 37 34 29 23 21 20 18 16 13 11 8 6 5 5 4 2 2 3 3 4 5 5 5 6 6 6 7 8 9
32 32 32 31 30 29 29 30 32 34 35 35 35 34 34 35 33 30 27 24 21 18 17 15 12 10 7 5 4 3 3 4 5 5 7 7 7 7 7 7 8 8 8
32 32 32 30 27 27 28 30 30 31 33 34 32 30 32 34 33 32 31 28 24 20 19 18 17 16 12 7 4 3 4 6 7 7 8 7 7 7 7 8 8 8 8
31 30 30 28 25 25 27 29 28 29 32 32 30 31 33 33 32 32 32 30 27 24 23 21 20 19 15 7 3 2 4 6 8 8 7 7 6 6 7 8 8 8 8
28 27 26 26 25 24 26 27 28 29 31 31 31 32 34 34 33 32 31 31 30 28 27 25 21 17 12 8 4 3 5 7 7 7 6 6 5 5 6 7 7 7 7
24 23 22 22 22 21 23 25 26 26 27 29 31 31 31 32 31 30 29 30 29 28 27 25 19 13 10 8 5 4 5 8 9 7 6 5 3 3 3 4 6 6 6
19 18 17 17 17 17 19 22 24 23 23 25 27 25 24 25 25 24 24 25 25 23 23 22 17 13 10 8 6 5 5 8 10 9 8 5 3 2 1 2 5 5 5
15 14 13 13 13 13 15 19 20 20 20 21 20 19 17 16 16 16 18 20 20 19 19 18 16 13 11 9 7 5 4 6 9 10 9 7 4 2 1 1 2 3 3
14 12 11 11 12 12 14 16 17 17 17 16 15 14 13 11 11 12 13 14 15 14 14 14 15 15 14 11 8 5 4 4 6 7 7 6 4 3 2 1 1 1 1
12 10 10 10 10 11 12 13 13 14 14 13 13 12 11 10 9 9 10 11 11 10 9 10 12 14 15 12 8 6 4 4 5 5 4 4 3 3 3 2 1 1 0
9 9 9 8 7 7 9 10 10 11 12 12 12 12 10 9 8 8 8 9 9 8 7 7 8 10 11 9 7 5 5 5 4 4 3 3 3 3 3 4 3 2 2
6 8 9 7 4 5 6 8 9 10 11 12 13 12 9 8 8 8 7 8 9 8 7 6 7 7 6 6 4 4 4 4 4 4 3 3 3 3 4 5 5 4 4

GEFSMW_con_probscp_240.txt.gz
Probability
0 0 0 0 0 0 0 0 1 3 3 2 0 0 0 0 0 0 0 0 0 0 0 0 0 0 0 0 0 0 0 0 0 0 0 0 0 0 0 0 0 0 0
0 0 0 0 0 0 0 0 1 4 5 4 2 1 0 0 0 0 0 0 0 0 0 0 0 0 0 0 0 0 0 0 0 0 0 0 0 0 0 0 0 0 0
0 1 1 1 1 1 1 1 2 4 7 8 6 4 2 1 1 0 0 0 0 0 0 0 0 0 0 0 0 0 0 0 0 0 0 0 0 0 0 0 0 0 0
1 3 5 5 4 3 3 3 2 4 7 9 8 8 6 4 2 1 1 0 0 1 0 0 0 0 0 0 0 0 1 1 2 2 1 1 0 0 0 0 0 0 0
5 8 10 9 6 5 6 5 3 4 6 8 9 9 9 7 4 3 2 1 1 1 1 1 1 1 1 2 2 2 3 4 4 4 4 2 1 0 0 0 0 0 0
12 12 13 11 6 5 7 7 6 5 7 8 9 9 10 10 8 6 4 3 3 3 2 2 2 3 3 4 4 4 5 6 5 4 4 2 1 1 0 0 0 0 0
17 15 13 10 6 5 6 7 7 7 8 9 10 10 11 12 11 8 6 6 5 4 4 4 4 4 5 5 6 6 6 6 6 4 2 1 1 1 0 0 0 0 0
17 16 12 9 6 6 8 9 8 8 8 9 10 11 12 12 10 9 8 7 6 5 5 5 5 5 5 6 6 7 6 6 6 3 1 1 1 0 0 0 0 0 0
16 15 12 9 8 9 11 12 12 11 10 11 11 11 11 9 8 8 7 6 5 4 4 4 5 6 6 7 8 7 6 5 4 2 1 0 0 0 0 0 0 0 0
14 14 12 10 11 12 14 16 16 15 14 14 13 10 8 7 7 7 6 5 5 5 5 5 6 6 7 8 8 6 5 3 2 1 1 1 1 0 0 0 0 0 0
11 13 13 11 12 14 15 18 19 18 16 14 13 10 7 6 6 6 7 8 9 9 8 8 8 8 7 7 6 5 4 3 2 1 1 2 2 2 2 1 0 1 1
10 12 13 13 15 16 17 19 19 17 15 13 11 10 10 8 7 8 11 14 13 12 11 10 9 8 7 6 5 4 5 4 3 1 2 3 3 3 3 2 2 2 3
11 14 16 17 18 19 20 20 19 17 16 14 11 11 13 14 13 13 15 16 15 13 11 10 9 8 6 6 6 5 5 5 3 2 2 3 3 3 5 5 5 5 4
10 13 16 18 19 20 21 21 21 19 17 14 12 13 16 19 20 19 17 16 15 13 11 10 10 9 7 6 7 6 5 4 2 1 1 2 2 4 7 9 9 7 6
10 12 14 16 18 18 20 23 24 22 20 18 17 17 19 21 22 22 19 16 15 13 12 11 11 10 8 7 7 6 4 3 2 1 2 2 2 4 7 9 10 9 8
11 11 12 14 16 17 20 25 27 25 24 24 24 23 23 23 22 21 18 15 13 12 12 12 11 10 9 6 5 5 5 5 4 4 5 5 5 5 6 6 6 7 8
12 12 11 11 12 15 19 24 26 26 25 26 27 27 26 25 23 20 17 15 13 12 12 11 10 9 8 5 3 3 6 7 6 6 8 8 8 7 7 5 4 4 4
12 12 12 13 14 15 18 21 22 23 23 23 24 26 26 24 23 21 19 17 16 15 14 12 12 11 8 4 2 2 5 6 6 7 8 9 8 8 7 6 5 4 3
9 11 14 17 17 17 19 20 21 20 19 19 21 22 22 20 20 21 20 20 18 18 17 16 16 14 11 7 2 2 4 5 6 7 9 9 7 6 4 4 5 5 5
8 10 13 16 17 18 19 19 19 16 14 14 17 18 18 17 17 17 17 17 17 16 16 16 16 16 15 10 4 3 5 7 7 8 9 9 7 4 3 3 4 6 7
11 12 13 13 15 17 18 17 14 11 9 10 13 15 16 15 15 14 13 14 14 13 13 13 13 14 14 10 4 2 5 7 7 8 8 8 6 3 1 2 3 5 5
13 12 12 11 11 12 15 14 10 7 7 9 10 12 14 14 14 14 12 13 14 14 13 11 10 10 10 7 3 1 2 4 5 6 6 5 4 3 1 1 1 2 2
13 11 10 9 8 8 9 9 7 6 7 8 9 10 11 12 12 12 11 12 14 16 15 13 11 11 9 6 2 1 0 1 2 3 3 3 3 3 2 1 1 1 2
11 10 9 8 6 5 4 5 5 6 6 6 7 8 10 12 12 11 10 11 12 13 14 14 13 13 11 7 4 2 1 1 1 1 2 3 3 3 3 3 2 3 3
9 9 9 7 4 3 3 3 4 5 5 5 5 7 10 11 11 10 9 8 8 9 11 12 12 12 11 8 5 3 2 2 2 2 3 3 3 3 3 4 4 4 4
8 8 8 6 4 2 3 3 4 4 4 5 6 8 10 11 11 9 8 7 6 7 8 8 9 9 9 7 3 1 2 3 3 2 2 3 3 3 4 5 5 5 5

GEFSMW_con_probscp_246.txt.gz
Probability
3 4 4 2 2 4 6 6 7 9 9 8 6 5 3 1 0 0 0 0 1 1 1 2 3 2 1 0 0 0 1 2 2 2 1 1 1 1 0 0 0 0 0
6 6 5 3 3 5 7 7 8 9 10 9 8 7 5 2 0 1 1 1 2 2 2 2 3 3 3 1 1 1 2 3 3 4 3 2 1 1 0 0 0 0 0
9 8 7 5 5 8 10 9 9 10 11 12 11 11 8 4 3 3 3 3 4 3 3 3 4 5 5 4 3 4 4 4 5 6 6 4 3 3 2 1 1 1 1
12 13 12 10 8 8 10 11 11 12 12 13 14 13 10 7 6 6 6 6 6 4 4 4 5 7 7 6 6 6 6 6 6 7 8 8 7 7 4 2 1 2 3
17 19 20 17 13 10 11 13 13 13 13 13 13 13 11 8 8 8 10 10 9 7 6 7 9 9 8 7 7 7 7 8 8 8 10 10 10 10 7 3 1 1 1
22 25 26 23 18 14 13 14 15 15 13 12 12 12 11 10 10 11 12 12 11 10 9 11 13 12 9 8 8 8 8 9 9 9 10 10 11 11 8 4 1 0 0
27 29 29 25 21 17 16 17 20 20 17 14 13 12 11 11 12 14 15 14 12 11 12 13 14 12 10 9 10 10 9 9 9 9 9 10 10 10 9 6 3 1 1
26 28 29 28 25 21 20 21 25 27 25 21 18 16 14 13 14 16 17 15 12 12 13 13 13 13 12 11 13 12 11 10 9 8 8 8 8 10 11 10 6 3 2
20 24 28 31 29 26 24 25 28 30 29 28 25 20 16 15 16 18 18 17 15 15 16 15 14 13 12 13 14 14 12 12 12 11 10 9 9 10 12 12 9 5 3
16 19 26 30 31 28 27 27 28 29 28 28 26 21 15 14 15 16 17 19 20 21 21 20 17 15 14 14 14 13 13 15 16 15 14 13 12 12 12 12 10 9 8
19 20 25 31 32 29 26 26 27 28 26 24 24 21 16 12 12 14 17 21 23 23 23 23 21 19 18 16 14 13 15 17 19 19 19 17 15 14 12 11 11 11 12
24 24 26 32 35 32 27 25 27 28 26 24 23 22 19 16 16 17 19 22 22 21 21 21 22 22 22 19 16 14 15 18 20 22 21 19 17 15 13 12 11 11 12
26 25 27 32 37 37 33 29 28 29 28 25 23 22 21 21 21 21 21 22 22 22 21 19 19 21 22 20 17 15 17 18 20 21 20 19 18 16 15 14 13 13 13
24 25 28 31 36 39 38 35 33 34 32 27 24 24 24 24 23 23 22 22 24 25 24 22 21 21 22 21 17 16 17 19 19 19 17 16 16 15 14 14 15 14 14
20 23 28 32 34 37 39 38 38 39 37 35 32 29 28 26 24 23 23 24 26 27 29 28 27 25 23 19 16 15 16 18 20 19 17 15 14 13 12 11 12 13 14
20 22 28 32 34 36 38 38 39 41 42 44 41 35 31 27 25 25 24 26 29 31 33 33 31 30 24 16 11 14 17 20 22 20 17 14 13 12 8 6 5 7 9
23 25 28 32 35 37 38 38 39 41 44 47 45 39 35 31 29 27 26 27 31 34 34 32 30 30 25 15 8 10 17 21 22 21 17 14 12 11 8 6 4 5 7
25 26 28 32 36 37 37 37 37 38 41 44 43 40 37 34 31 30 29 31 32 34 34 31 28 30 27 16 7 8 14 19 21 20 19 18 14 11 9 9 10 11 11
26 27 28 33 38 38 37 34 32 33 36 39 40 38 37 36 35 35 34 34 33 33 33 32 30 31 27 16 6 6 14 19 20 20 21 20 15 10 8 10 14 16 16
27 28 29 33 38 38 36 32 30 31 34 36 36 36 36 37 36 36 36 33 31 31 32 33 33 30 24 14 5 6 14 20 20 20 20 16 11 7 6 9 13 16 16
26 26 28 31 33 35 35 33 32 33 35 35 34 33 33 34 33 33 32 30 28 28 29 30 30 26 19 11 4 4 11 17 18 19 18 14 7 4 4 6 10 12 12
24 24 27 28 29 30 32 32 31 31 32 30 29 27 27 28 28 28 28 27 26 25 24 22 21 20 16 10 5 2 4 8 13 16 16 11 5 1 1 3 5 7 8
24 25 27 28 28 28 29 27 25 25 24 22 20 19 19 20 22 23 23 23 22 20 17 14 13 14 15 13 8 3 1 2 7 10 10 6 2 0 0 1 2 4 7
26 27 27 27 27 26 26 23 19 18 16 13 11 10 11 14 15 17 18 18 17 15 12 11 10 11 14 15 12 8 4 3 4 6 6 4 2 2 2 2 3 5 8
25 25 24 23 23 22 22 19 15 13 11 8 6 7 9 11 11 13 14 15 13 11 10 10 10 10 11 13 12 9 7 5 4 5 7 7 5 5 5 5 5 7 9
24 23 21 20 19 18 17 15 13 11 9 6 5 7 10 10 9 11 12 12 11 8 8 9 10 9 9 9 7 6 5 4 3 4 8 9 7 6 6 6 6 7 9

GEFSMW_con_probscp_252.txt.gz
Probability
27 26 21 16 21 31 34 27 22 19 14 8 7 8 9 8 5 6 10 11 9 9 7 5 3 2 3 5 5 5 5 5 4 3 4 5 6 9 11 11 9 7 6
31 33 29 24 26 33 34 28 24 23 18 12 10 10 10 9 6 7 11 13 12 11 8 5 4 4 6 7 8 7 5 4 4 4 5 6 7 7 8 9 8 7 7
37 41 39 34 35 38 36 32 29 28 23 18 14 13 13 12 10 11 13 13 14 13 10 8 7 7 8 9 11 10 8 5 5 7 8 8 8 7 7 8 8 7 7
39 43 44 40 38 37 35 36 36 33 27 21 17 17 18 16 15 14 14 14 16 16 14 12 12 11 9 9 11 12 11 8 7 8 8 8 9 8 8 8 7 6 6
42 44 46 41 36 32 34 40 43 40 32 25 22 22 22 21 19 17 16 17 18 19 19 16 14 14 12 11 12 13 13 11 9 9 8 8 9 9 8 8 7 6 6
43 46 48 45 39 35 36 43 48 45 37 31 29 29 28 26 23 19 18 18 19 21 21 18 16 16 15 14 14 15 15 13 12 11 9 9 9 9 8 7 6 5 6
42 47 52 52 48 44 43 47 53 51 44 38 35 34 32 29 24 20 17 17 18 19 19 20 20 20 18 16 16 16 17 16 14 12 11 10 10 10 10 8 6 4 4
37 44 53 56 54 50 48 51 56 55 50 44 40 35 31 28 24 19 16 16 17 19 21 22 23 24 21 19 18 18 19 19 16 14 13 12 11 11 11 10 7 4 3
33 41 49 52 52 50 50 53 56 56 52 48 42 34 28 26 25 21 18 18 19 20 24 26 25 25 23 22 21 21 21 21 19 17 17 16 14 12 13 13 10 6 4
33 40 47 49 48 48 49 54 57 55 51 47 41 34 29 26 25 24 22 22 22 23 25 28 27 24 23 23 22 22 22 21 19 19 18 18 17 15 15 15 13 9 7
32 38 45 47 47 48 50 54 57 56 50 46 41 38 35 31 28 27 26 26 25 25 26 27 26 22 20 21 20 19 19 19 18 16 15 16 16 15 15 16 14 11 10
27 33 40 44 46 47 49 52 55 54 51 47 44 44 43 39 34 31 30 31 31 30 29 28 25 20 17 19 19 17 17 17 16 14 13 13 13 12 12 13 13 11 10
29 33 40 44 47 48 50 53 54 53 51 49 48 49 49 45 41 37 35 36 36 34 31 30 26 21 19 20 19 18 18 17 15 13 13 13 12 12 10 10 11 10 9
36 39 44 49 51 53 55 56 56 55 54 54 54 53 52 51 48 44 41 39 37 34 32 30 25 21 20 20 20 20 19 17 15 15 15 14 13 13 11 9 9 9 10
40 42 47 51 53 56 59 60 58 57 58 58 57 56 56 55 53 49 46 42 37 33 32 30 25 20 17 17 19 20 20 20 19 19 17 15 12 11 9 7 7 9 10
39 42 46 50 53 55 59 60 59 59 59 58 57 57 57 56 54 53 51 47 41 37 34 32 28 22 17 13 14 19 22 24 25 24 22 17 14 12 8 5 4 5 6
37 41 45 48 51 52 56 57 57 57 58 57 55 55 55 53 52 52 51 49 45 40 36 33 31 28 21 13 10 15 23 28 29 29 26 22 18 15 12 8 5 5 5
37 40 43 47 49 50 52 54 54 55 56 54 52 52 51 49 48 48 48 47 45 41 36 33 31 30 25 16 9 12 23 30 31 31 29 25 20 15 12 11 10 10 10
37 39 41 44 49 51 51 51 52 53 53 51 48 48 47 45 45 46 46 47 45 42 37 32 30 30 27 18 10 12 23 31 31 30 27 23 18 14 11 11 12 13 13
39 40 40 44 51 53 51 49 50 51 51 48 45 45 45 44 44 45 45 46 45 41 36 32 30 29 25 18 10 11 20 27 28 26 22 16 12 10 8 8 10 11 12
41 43 45 49 53 53 50 49 49 49 49 46 43 43 43 43 42 41 42 44 42 38 33 29 27 26 24 16 8 6 12 19 22 21 16 11 6 3 3 4 6 8 8
43 46 51 53 52 51 50 48 47 46 45 43 42 42 42 40 37 36 36 38 37 33 30 27 24 24 23 17 8 4 5 10 14 14 11 8 4 1 0 1 3 4 4
43 45 47 47 46 46 46 44 44 43 43 41 39 39 38 35 30 27 25 25 26 25 23 22 21 22 22 18 10 5 2 4 8 8 6 5 2 1 0 0 1 2 3
42 42 41 41 40 41 41 40 40 40 38 36 33 30 28 26 22 17 13 12 14 15 16 16 16 19 20 17 11 7 4 3 4 5 4 3 2 1 1 1 2 3 3
44 42 39 38 37 36 35 35 35 34 31 27 24 20 18 17 14 10 7 5 6 8 10 11 12 14 15 13 9 6 5 4 4 4 4 3 3 2 3 3 4 5 5
45 42 38 35 33 32 31 31 31 30 26 21 18 14 12 10 10 7 4 4 4 4 6 8 10 11 11 9 6 4 4 4 4 5 6 5 4 3 4 5 6 6 6

GEFSMW_con_probscp_258.txt.gz
Probability
14 16 16 16 17 16 14 13 12 10 7 5 4 3 2 1 0 0 0 0 0 0 0 0 0 0 1 1 1 0 0 0 0 0 0 0 0 0 0 0 0 0 0
15 18 19 18 18 17 15 13 12 10 8 6 5 4 3 2 1 0 0 0 0 0 0 0 0 0 0 0 0 0 1 1 1 1 1 1 0 0 0 0 0 0 0
15 18 21 22 21 19 16 14 13 12 11 10 8 6 5 3 1 0 0 0 0 0 0 0 0 0 0 0 0 1 2 2 2 3 3 3 1 1 0 0 0 0 0
17 19 21 24 24 22 18 14 13 13 13 13 12 9 7 4 2 0 0 0 0 1 1 1 1 1 0 0 0 1 3 4 4 4 5 5 4 3 1 1 0 0 0
22 22 23 24 25 25 22 19 16 15 14 14 13 10 8 5 3 1 1 1 2 4 5 5 4 2 1 0 1 2 4 5 6 6 6 6 6 5 4 2 1 0 0
25 25 25 26 26 27 27 25 23 20 17 15 12 10 7 6 5 4 3 4 5 7 8 8 6 5 3 3 3 5 6 6 6 6 6 6 6 6 5 4 2 1 0
25 26 26 27 28 29 30 29 26 24 21 17 12 9 7 6 6 6 5 5 6 7 8 8 7 6 6 5 5 7 7 7 6 6 5 4 4 5 5 4 3 1 0
23 24 25 27 28 29 30 29 28 26 23 19 14 11 9 7 6 6 5 5 5 6 7 7 6 5 5 5 4 5 6 6 6 5 4 3 4 4 5 4 3 1 0
23 23 24 25 27 27 28 30 31 29 25 20 17 15 12 10 8 7 5 4 5 6 6 5 4 4 4 4 3 3 4 6 6 4 3 3 4 4 5 4 3 1 0
23 23 23 24 25 27 29 32 34 32 28 25 21 19 17 14 12 10 7 5 5 5 4 4 4 4 4 5 4 3 4 5 5 4 3 3 3 4 4 3 2 1 0
25 24 23 24 26 28 30 33 34 32 30 29 27 24 21 19 16 14 12 9 7 5 4 4 5 5 5 6 5 4 4 5 4 4 3 3 3 3 3 3 2 1 0
26 25 25 25 27 29 30 30 30 28 28 30 31 28 25 22 19 17 16 13 9 8 7 6 6 5 5 6 5 5 5 5 4 4 3 3 3 3 3 1 1 0 0
25 26 26 27 28 30 30 29 29 29 29 31 32 30 28 26 22 20 19 17 14 14 14 12 10 8 7 6 6 5 4 4 4 3 3 3 4 4 3 1 0 0 0
25 26 29 32 34 35 34 34 35 35 34 34 34 32 30 29 26 23 21 21 21 20 20 18 16 13 10 8 7 6 5 4 4 4 3 4 5 6 4 2 1 1 1
24 27 32 35 38 40 40 41 42 41 40 37 35 33 30 29 27 24 22 22 23 22 21 20 18 15 11 8 8 9 9 8 7 7 6 5 5 5 3 3 2 1 0
23 28 33 36 38 40 43 45 46 45 42 40 37 34 31 29 26 24 23 21 21 20 20 19 18 16 12 9 8 10 11 11 11 11 10 7 5 3 2 1 1 0 0
25 28 32 33 33 35 40 44 47 47 45 42 40 37 34 31 27 24 23 21 19 19 19 18 18 17 15 10 8 8 10 12 13 12 11 8 6 4 3 2 1 1 1
26 27 27 27 28 29 33 38 44 46 46 44 42 40 37 33 28 26 24 21 19 18 17 17 17 17 14 10 6 6 8 11 12 11 10 9 8 6 5 5 4 4 3
25 25 24 23 24 25 27 33 40 45 46 45 44 42 39 35 31 28 25 22 20 18 17 16 16 15 11 7 4 4 8 11 12 12 11 10 9 7 6 6 5 5 5
23 23 23 22 22 24 27 31 37 41 43 43 42 40 38 34 31 28 25 23 22 20 18 16 14 11 7 4 2 3 7 10 11 11 10 8 6 4 3 4 4 4 4
20 21 21 22 22 24 27 30 33 34 35 35 35 34 33 31 28 25 23 23 22 20 17 13 10 8 5 2 1 2 4 8 9 9 8 6 3 2 1 2 3 3 3
20 19 18 19 20 22 25 28 28 26 26 27 27 28 28 27 24 21 19 18 18 16 12 8 5 4 2 1 0 0 2 4 6 7 6 5 3 1 0 1 2 2 2
18 17 14 14 17 19 22 24 24 22 22 23 23 22 23 21 18 15 13 12 10 7 5 3 1 1 1 0 0 0 0 1 3 5 5 4 2 0 0 0 1 1 2
14 14 13 13 15 18 21 22 22 21 21 21 20 18 16 14 11 8 6 5 3 1 1 0 0 0 0 0 1 1 0 0 1 2 3 2 1 1 1 1 1 1 2
11 12 13 13 15 18 21 22 21 20 20 19 17 15 12 9 6 4 3 2 0 0 0 0 0 0 0 0 1 1 0 0 0 1 1 2 2 2 2 2 2 3 3
11 12 12 12 14 17 20 21 20 19 18 16 15 13 10 8 6 4 2 1 0 0 0 0 0 0 0 0 0 1 0 0 0 0 1 1 2 3 3 3 3 3 3

GEFSMW_con_probscp_264.txt.gz
Probability
1 2 5 5 6 6 5 3 2 1 1 0 0 0 0 0 0 0 0 0 0 0 0 0 0 0 0 0 0 0 0 0 0 0 0 0 0 0 0 0 1 0 0
2 3 6 7 7 7 5 3 3 2 2 1 0 0 0 0 0 0 0 0 0 0 0 0 0 0 0 0 0 0 0 0 0 0 1 1 1 0 1 1 2 1 0
3 5 8 10 9 7 4 3 3 3 2 1 0 0 0 0 0 0 0 0 0 0 0 0 0 0 0 0 0 0 0 0 0 1 2 3 3 2 3 3 3 2 1
3 6 10 12 11 7 5 3 3 3 3 1 0 0 0 0 0 0 0 0 0 0 0 0 0 0 0 0 0 0 0 0 0 2 4 5 5 5 5 5 3 3 2
4 7 11 14 14 12 8 5 4 3 3 2 1 0 0 1 1 0 0 0 0 0 0 0 0 0 0 0 0 0 1 1 2 4 5 5 4 5 5 5 3 2 2
6 8 12 15 17 16 12 8 5 3 3 2 1 0 0 1 1 1 1 1 1 0 0 0 0 0 1 1 1 1 3 4 5 5 5 4 3 4 5 5 3 2 2
6 8 12 16 19 17 15 13 9 5 4 4 3 2 2 2 3 3 3 3 3 1 1 1 1 2 3 3 3 3 5 5 4 4 4 3 3 3 4 4 3 2 2
6 9 14 18 19 18 17 18 15 10 8 8 8 6 6 6 6 6 6 6 5 4 3 4 4 5 5 4 4 5 4 4 3 3 3 3 3 3 3 3 3 2 1
7 11 16 19 19 18 19 21 21 17 14 13 12 10 9 8 8 7 7 7 6 6 5 5 5 4 4 4 5 5 4 3 3 3 3 3 3 3 3 3 3 2 1
7 10 16 18 18 18 19 21 22 21 19 18 16 13 11 10 10 9 8 8 7 5 4 4 4 3 3 4 4 4 4 3 3 3 3 3 3 3 3 3 3 3 3
6 9 14 18 18 16 17 18 19 20 21 21 19 17 15 14 12 11 11 10 7 5 4 4 3 3 3 4 5 5 4 3 4 3 3 3 3 3 3 3 3 3 3
5 8 13 17 16 14 14 15 16 19 21 22 22 21 20 19 17 15 13 10 8 7 6 6 6 5 5 6 5 4 4 4 5 4 3 3 3 3 3 3 3 3 3
7 8 12 15 14 13 14 15 16 19 20 22 23 23 23 23 21 18 15 12 11 11 10 10 9 8 8 8 6 5 5 5 5 4 3 3 3 3 3 4 4 4 3
9 9 10 13 15 15 15 16 17 19 20 22 22 23 24 24 23 21 18 16 15 15 14 13 11 10 9 8 8 7 6 5 4 3 3 3 3 3 4 5 6 5 3
10 10 11 15 18 19 18 17 18 20 21 21 21 22 23 23 23 23 22 19 18 18 17 15 13 11 9 7 7 8 7 6 5 5 5 4 3 4 5 6 7 6 4
11 11 13 17 20 21 21 21 22 23 23 22 21 22 22 24 25 25 23 20 19 18 18 17 16 14 10 6 4 5 8 8 8 8 7 7 5 5 4 5 4 4 3
11 12 12 14 18 20 22 24 26 26 25 25 24 23 24 25 26 25 22 20 18 18 18 18 17 16 12 6 2 2 6 9 10 9 9 10 9 8 6 6 4 3 2
11 11 10 10 12 14 19 23 27 29 29 29 27 25 26 27 26 24 22 21 20 20 20 19 18 17 11 4 0 1 4 9 10 9 10 12 12 10 8 7 6 5 4
11 10 9 9 9 11 15 20 25 31 33 32 29 27 27 28 25 23 23 24 23 22 22 21 20 17 12 5 1 1 4 8 8 8 9 11 10 8 6 5 5 4 4
9 9 9 8 8 10 13 18 23 28 31 31 30 28 27 26 25 24 25 25 24 23 23 23 21 18 13 7 2 2 5 7 6 5 7 8 6 4 2 2 3 3 3
6 7 7 6 7 8 11 15 18 20 22 25 26 25 24 23 24 23 22 22 22 22 22 21 19 15 10 6 2 1 4 6 5 4 5 4 3 1 0 1 2 2 2
5 5 5 5 6 7 9 12 13 13 14 17 19 20 20 20 20 19 18 18 19 19 18 17 14 10 5 2 0 0 2 3 4 3 3 2 1 0 0 0 1 1 1
5 5 4 6 8 8 8 9 11 12 13 14 16 17 18 19 18 16 16 16 16 15 14 12 9 5 3 1 0 0 0 1 2 2 1 0 0 0 0 0 0 0 0
6 6 5 7 9 9 8 8 11 13 13 15 15 16 18 19 17 14 13 13 13 11 10 8 5 4 2 1 0 0 0 0 1 1 0 0 0 0 0 0 0 0 0
6 6 6 7 9 9 7 7 10 11 13 14 14 15 16 17 14 10 8 8 8 7 6 5 4 3 2 1 0 0 0 0 0 0 0 0 0 0 0 0 0 0 0
5 6 6 7 9 9 7 6 8 10 12 13 13 14 15 15 12 7 5 5 5 5 4 4 3 3 2 1 0 0 0 0 0 0 0 0 0 0 0 0 0 0 0

GEFSMW_con_probscp_270.txt.gz
Probability
2 3 3 4 7 8 9 9 10 11 10 9 6 5 3 2 2 2 1 0 0 1 1 1 0 0 1 2 2 1 2 3 5 5 4 3 2 3 3 3 1 0 0
3 5 6 7 9 10 10 11 12 11 10 9 8 5 4 4 3 3 3 2 1 0 0 0 1 1 2 3 3 2 3 3 4 4 4 3 3 3 3 4 3 2 2
5 7 9 9 11 13 12 12 12 11 10 9 8 6 6 6 5 4 5 5 3 1 0 0 1 2 3 3 3 3 3 3 4 5 6 5 4 5 5 6 6 7 6
9 10 10 10 11 13 14 14 14 13 11 9 8 6 6 6 5 4 5 6 5 3 1 1 2 3 4 4 3 3 4 5 5 7 8 7 7 7 7 7 7 8 8
14 11 10 11 12 14 16 17 18 17 13 10 7 6 5 5 4 5 5 6 5 4 3 2 2 3 3 3 3 4 6 8 7 8 8 8 7 8 8 7 5 6 7
15 12 11 13 15 17 19 21 21 20 17 13 10 8 6 5 5 6 7 6 5 5 5 4 3 3 4 4 5 7 10 10 9 9 8 8 7 7 7 6 4 5 7
15 14 15 18 20 21 22 25 26 24 21 18 16 13 9 6 5 7 8 7 5 4 4 4 3 4 6 7 8 9 11 11 9 8 8 8 7 7 7 7 5 5 6
14 15 18 22 25 25 27 30 32 29 25 23 22 19 13 8 6 6 7 6 5 4 3 3 3 5 8 10 10 11 11 10 8 6 7 8 7 7 8 8 7 7 6
11 13 17 22 26 27 28 31 34 34 29 26 25 22 18 13 9 8 7 6 7 6 4 4 5 7 9 11 11 12 11 10 8 8 8 8 7 8 10 11 12 11 10
11 13 16 21 25 25 26 28 32 34 32 28 26 24 22 19 16 14 11 11 12 11 9 8 9 10 10 12 13 13 13 12 11 11 11 10 10 10 12 14 14 15 15
12 13 17 22 25 25 27 29 29 31 31 29 27 25 25 23 22 21 18 17 18 17 15 15 15 15 15 15 15 15 14 13 13 13 13 14 13 13 13 14 13 14 16
14 16 21 26 28 30 32 31 29 30 31 30 28 26 26 27 25 23 21 20 20 19 19 20 21 20 19 18 18 17 15 14 14 14 13 14 14 14 14 14 12 10 12
17 21 27 32 34 36 37 34 31 30 32 31 29 27 28 29 28 25 23 21 20 20 22 24 25 23 20 18 18 18 17 16 16 16 14 13 14 15 16 16 14 12 12
22 26 31 36 38 37 37 37 34 33 34 33 31 29 28 30 30 28 25 23 21 20 22 24 24 22 20 19 19 19 17 16 15 16 15 14 14 16 16 17 18 19 19
22 26 32 37 39 38 37 38 38 38 38 36 34 31 31 33 34 33 30 27 24 24 25 25 24 22 19 17 19 20 19 16 15 15 16 15 14 13 12 12 15 19 21
19 24 30 36 37 37 37 39 40 41 42 40 37 35 36 37 39 39 37 32 31 30 31 30 28 25 20 14 14 18 21 19 17 16 15 14 12 10 8 6 6 9 13
17 21 28 32 32 33 35 39 42 42 41 40 40 40 41 42 43 44 42 39 38 37 36 35 31 28 22 13 9 12 18 20 18 17 16 13 10 9 9 6 4 5 7
16 19 24 29 30 30 33 38 41 42 41 43 44 45 47 48 47 46 46 45 43 41 38 35 33 30 24 15 7 6 13 18 16 16 18 16 12 9 9 9 9 10 10
16 18 22 28 32 33 34 37 40 43 46 47 48 49 51 52 52 50 49 47 45 42 38 35 33 32 26 16 6 5 13 17 17 18 19 17 13 9 7 10 13 13 13
17 17 20 27 34 36 36 37 41 46 49 49 48 48 50 51 51 50 48 46 43 41 38 35 33 32 26 15 5 6 15 21 23 23 19 14 9 6 5 8 11 11 11
18 18 20 26 32 33 33 35 38 40 42 43 43 44 45 44 43 43 43 43 41 39 37 34 31 27 21 12 4 6 14 22 25 24 18 10 4 2 2 3 5 6 6
17 19 22 26 28 27 28 30 30 31 33 34 36 38 38 35 33 34 36 37 37 34 31 28 24 20 16 10 5 4 9 16 20 20 14 7 2 0 0 0 1 2 2
16 18 22 24 24 23 23 25 25 25 26 28 31 32 32 30 27 28 30 32 32 28 24 19 16 15 14 10 5 2 3 7 12 11 8 3 1 0 0 0 0 0 0
15 16 18 21 23 22 22 24 25 25 24 25 28 28 27 26 24 24 26 27 27 24 20 17 14 12 12 9 5 2 2 3 5 5 2 1 0 0 0 0 0 0 0
13 14 16 19 22 24 23 23 25 26 25 24 25 24 23 22 21 20 20 20 19 18 16 15 14 10 9 7 5 3 2 2 2 3 2 0 0 0 0 0 0 1 1
13 14 16 17 21 23 21 21 23 25 25 24 23 23 22 20 19 18 15 13 13 12 11 12 12 9 6 4 3 3 2 1 2 2 1 0 0 0 0 0 1 2 2

GEFSMW_con_probscp_276.txt.gz
Probability
27 23 18 15 16 23 28 28 26 24 20 15 11 10 10 9 7 7 7 6 4 4 3 1 1 1 1 0 1 2 1 1 2 2 2 3 4 3 4 5 5 5 5
34 30 24 19 21 26 29 29 28 25 21 15 11 10 11 10 8 8 8 6 5 6 5 3 2 2 3 2 3 4 4 3 3 3 3 3 3 3 3 4 5 5 5
38 36 32 27 26 28 29 29 29 27 23 17 12 11 12 11 9 8 8 8 8 8 8 7 7 7 7 7 7 8 7 6 5 5 5 4 3 3 3 3 3 4 4
37 38 38 34 30 29 29 29 29 28 25 20 14 12 13 13 11 10 10 12 13 12 12 12 13 12 11 11 11 11 10 8 7 7 6 5 4 4 4 3 2 2 3
37 39 41 39 33 31 31 33 34 33 28 23 18 16 16 15 15 14 14 15 16 17 16 15 15 15 13 11 12 12 10 8 7 6 5 5 6 8 8 6 3 3 3
34 37 40 40 38 36 38 40 43 42 34 27 23 21 20 20 19 18 16 15 16 17 17 17 18 18 15 12 11 11 9 8 7 6 5 5 6 9 9 7 4 3 4
32 35 38 41 42 44 46 48 52 51 43 34 30 28 26 24 22 18 16 14 14 15 17 20 22 21 17 14 12 11 8 8 8 8 7 6 6 7 8 7 5 4 5
29 33 38 43 46 47 49 54 58 58 50 41 37 35 32 28 24 19 15 13 13 16 21 25 27 25 20 17 16 13 11 12 12 11 11 10 8 7 6 6 6 5 5
26 30 39 47 49 48 49 55 62 62 56 49 45 41 38 34 28 21 18 17 16 19 26 30 31 29 24 22 20 18 18 18 17 16 16 15 12 9 8 8 8 8 7
25 29 38 46 49 48 49 55 62 65 61 56 52 47 45 41 33 26 24 23 22 25 29 32 33 33 29 27 25 24 24 24 22 20 19 18 16 13 11 11 11 11 10
30 34 39 44 47 48 51 56 61 65 65 63 59 55 54 48 39 33 31 28 28 30 33 35 37 37 34 31 29 28 28 27 26 23 20 19 17 15 14 14 13 13 12
35 39 43 46 49 51 54 58 61 63 65 64 63 61 59 53 46 40 36 33 33 35 37 39 40 39 38 34 31 29 30 30 28 24 20 18 18 18 17 15 14 13 12
36 39 45 49 52 52 55 59 61 61 62 63 64 62 58 54 49 44 39 38 40 39 39 39 38 38 38 34 30 29 29 29 27 24 20 18 19 20 19 16 14 13 13
34 38 44 48 51 52 52 55 58 60 63 65 65 61 57 53 50 46 43 44 45 44 42 40 39 37 34 30 28 27 28 27 26 24 21 18 18 19 17 15 14 14 14
33 37 42 46 49 49 48 49 53 59 65 69 68 63 57 54 53 50 49 50 50 49 48 47 44 37 30 26 26 28 28 28 27 25 23 19 17 15 13 11 11 12 14
33 36 39 43 45 45 45 45 49 57 66 71 69 63 59 57 55 55 55 56 55 53 53 53 49 39 28 23 24 27 31 31 30 29 25 19 14 11 9 7 6 7 8
36 35 36 39 41 41 42 43 47 55 64 69 67 62 60 59 59 59 60 59 57 55 55 55 50 41 29 20 17 22 30 33 32 31 26 19 14 11 10 9 7 7 6
37 35 35 36 37 38 41 43 45 53 62 67 65 61 60 61 61 62 61 60 58 56 55 54 49 42 29 17 11 15 27 32 31 30 27 21 15 12 13 14 13 11 10
34 34 34 35 37 39 44 46 46 52 60 65 64 62 61 61 60 61 60 58 56 55 53 50 45 39 29 17 8 12 24 31 30 29 26 20 15 11 12 15 16 14 13
30 30 32 35 39 42 46 48 49 53 59 62 61 61 61 59 57 57 56 53 51 49 48 44 40 35 27 16 7 10 22 30 29 27 22 16 11 8 8 12 14 14 14
28 28 31 37 40 42 44 46 48 52 55 56 55 56 57 53 49 48 48 47 44 42 42 40 36 31 22 12 6 7 16 24 25 23 19 13 7 5 5 8 10 10 10
30 30 34 39 40 40 41 42 43 46 48 48 46 48 49 44 40 40 42 41 39 37 38 37 33 26 18 12 7 5 9 14 18 19 16 9 4 2 2 3 4 4 4
34 35 36 38 38 38 38 39 40 40 40 39 38 39 40 39 38 38 37 37 36 35 34 33 29 22 18 14 9 5 4 6 10 13 10 4 1 0 0 0 0 1 2
36 36 37 35 34 34 33 35 36 36 34 33 33 34 35 37 39 38 34 33 33 33 32 30 26 21 18 15 11 8 5 4 5 6 5 3 1 1 1 1 1 1 2
33 33 33 31 29 28 27 28 32 32 30 29 29 30 32 35 36 34 28 26 26 27 26 26 24 20 15 12 10 8 6 4 3 4 4 3 3 3 2 2 2 3 3
30 29 28 26 24 24 23 25 29 31 29 27 26 28 30 32 34 30 22 17 17 18 19 22 22 18 13 9 8 6 5 4 4 4 4 4 4 4 3 2 3 3 3